Wetterdaten: Donnerstag, 20.07.2017
Datum Zeit Temp. Aussen Temp. o. S. +5cm Feuchte Auss BlattFeu 1 Luftdruck Regen Sonnenschein Regendauer Solar Windben Empfang
20.07.2017 00:00 20,7 C 20,0 C 18,9 C 89 % 0 lf 1007,2 hPa 0,0 l/m 0 min 0 min 0 W/m 10,5 km/h (2 Bft) 100,00 %
20.07.2017 00:02 20,7 C 20,0 C 18,9 C 89 % 0 lf 1007,2 hPa 0,0 l/m 0 min 0 min 0 W/m 8,4 km/h (2 Bft) 20,00 %
20.07.2017 00:04 20,7 C 20,0 C 18,9 C 89 % 0 lf 1007,2 hPa 0,0 l/m 0 min 0 min 0 W/m 8,4 km/h (2 Bft) 40,00 %
20.07.2017 00:06 20,7 C 20,0 C 18,9 C 89 % 0 lf 1007,2 hPa 0,0 l/m 0 min 0 min 0 W/m 10,5 km/h (2 Bft) 98,15 %
20.07.2017 00:10 20,7 C 20,0 C 18,9 C 89 % 0 lf 1007,2 hPa 0,0 l/m 0 min 0 min 0 W/m 18,8 km/h (3 Bft) 100,00 %
20.07.2017 00:12 20,7 C 20,0 C 18,9 C 89 % 0 lf 1007,2 hPa 0,0 l/m 0 min 0 min 0 W/m 8,4 km/h (2 Bft) 97,87 %
20.07.2017 00:14 20,6 C 20,0 C 18,9 C 89 % 0 lf 1007,3 hPa 0,0 l/m 0 min 0 min 0 W/m 6,3 km/h (2 Bft) 100,00 %
20.07.2017 00:16 20,6 C 20,0 C 18,9 C 89 % 0 lf 1007,3 hPa 0,0 l/m 0 min 0 min 0 W/m 10,5 km/h (2 Bft) 95,65 %
20.07.2017 00:18 20,6 C 20,0 C 18,9 C 89 % 0 lf 1007,3 hPa 0,0 l/m 0 min 0 min 0 W/m 10,5 km/h (2 Bft) 100,00 %
20.07.2017 00:20 20,6 C 20,0 C 18,9 C 89 % 0 lf 1007,3 hPa 0,0 l/m 0 min 0 min 0 W/m 10,5 km/h (2 Bft) 97,87 %
20.07.2017 00:22 20,6 C 20,0 C 18,9 C 89 % 0 lf 1007,3 hPa 0,0 l/m 0 min 0 min 0 W/m 8,4 km/h (2 Bft) 100,00 %
20.07.2017 00:24 20,6 C 20,0 C 18,9 C 89 % 0 lf 1007,4 hPa 0,0 l/m 0 min 0 min 0 W/m 14,6 km/h (3 Bft) 100,00 %
20.07.2017 00:26 20,6 C 20,0 C 18,9 C 89 % 0 lf 1007,3 hPa 0,0 l/m 0 min 0 min 0 W/m 12,6 km/h (3 Bft) 100,00 %
20.07.2017 00:28 20,6 C 20,0 C 18,9 C 90 % 0 lf 1007,3 hPa 0,0 l/m 0 min 0 min 0 W/m 16,7 km/h (3 Bft) 100,00 %
20.07.2017 00:30 20,6 C 20,0 C 18,9 C 90 % 0 lf 1007,3 hPa 0,0 l/m 0 min 0 min 0 W/m 18,8 km/h (3 Bft) 100,00 %
20.07.2017 00:32 20,6 C 20,0 C 18,9 C 90 % 0 lf 1007,3 hPa 0,0 l/m 0 min 0 min 0 W/m 12,6 km/h (3 Bft) 97,92 %
20.07.2017 00:34 20,6 C 20,0 C 18,9 C 90 % 0 lf 1007,5 hPa 0,0 l/m 0 min 2 min 0 W/m 12,6 km/h (3 Bft) 95,74 %
20.07.2017 00:36 20,6 C 20,6 C 18,9 C 90 % 0 lf 1007,4 hPa 0,0 l/m 0 min 2 min 0 W/m 12,6 km/h (3 Bft) 100,00 %
20.07.2017 00:38 20,6 C 20,6 C 18,9 C 90 % 0 lf 1007,4 hPa 0,0 l/m 0 min 0 min 0 W/m 16,7 km/h (3 Bft) 100,00 %
20.07.2017 00:40 20,6 C 20,6 C 18,9 C 90 % 0 lf 1007,4 hPa 0,0 l/m 0 min 0 min 0 W/m 12,6 km/h (3 Bft) 100,00 %
20.07.2017 00:42 20,6 C 20,6 C 18,9 C 90 % 0 lf 1007,5 hPa 0,0 l/m 0 min 0 min 0 W/m 10,5 km/h (2 Bft) 95,65 %
20.07.2017 00:44 20,6 C 20,6 C 18,9 C 90 % 0 lf 1007,5 hPa 0,0 l/m 0 min 0 min 0 W/m 12,6 km/h (3 Bft) 97,87 %
20.07.2017 00:46 20,6 C 20,6 C 18,9 C 90 % 0 lf 1007,5 hPa 0,0 l/m 0 min 0 min 0 W/m 12,6 km/h (3 Bft) 95,74 %
20.07.2017 00:48 20,6 C 20,6 C 18,9 C 90 % 0 lf 1007,5 hPa 0,0 l/m 0 min 0 min 0 W/m 14,6 km/h (3 Bft) 97,87 %
20.07.2017 00:50 20,6 C 20,6 C 18,9 C 90 % 0 lf 1007,5 hPa 0,0 l/m 0 min 0 min 0 W/m 12,6 km/h (3 Bft) 97,87 %
20.07.2017 00:52 20,6 C 20,6 C 18,9 C 90 % 0 lf 1007,5 hPa 0,0 l/m 0 min 0 min 0 W/m 10,5 km/h (2 Bft) 89,13 %
20.07.2017 00:54 20,6 C 20,6 C 18,9 C 90 % 0 lf 1007,5 hPa 0,0 l/m 0 min 0 min 0 W/m 10,5 km/h (2 Bft) 97,87 %
20.07.2017 00:56 20,6 C 20,6 C 18,9 C 90 % 0 lf 1007,5 hPa 0,0 l/m 0 min 0 min 0 W/m 12,6 km/h (3 Bft) 97,87 %
20.07.2017 00:58 20,6 C 20,6 C 18,9 C 90 % 0 lf 1007,5 hPa 0,0 l/m 0 min 0 min 0 W/m 10,5 km/h (2 Bft) 97,87 %
20.07.2017 01:00 20,6 C 20,6 C 18,9 C 90 % 0 lf 1007,4 hPa 0,0 l/m 0 min 0 min 0 W/m 10,5 km/h (2 Bft) 93,62 %
20.07.2017 01:02 20,6 C 20,6 C 18,9 C 90 % 0 lf 1007,5 hPa 0,0 l/m 0 min 0 min 0 W/m 10,5 km/h (2 Bft) 95,74 %
20.07.2017 01:04 20,6 C 20,6 C 18,9 C 90 % 0 lf 1007,5 hPa 0,0 l/m 0 min 0 min 0 W/m 8,4 km/h (2 Bft) 95,65 %
20.07.2017 01:06 20,6 C 20,6 C 18,9 C 90 % 0 lf 1007,5 hPa 0,0 l/m 0 min 0 min 0 W/m 6,3 km/h (2 Bft) 90,74 %
20.07.2017 01:08 20,6 C 20,0 C 18,9 C 90 % 0 lf 1007,4 hPa 0,0 l/m 0 min 0 min 0 W/m 10,5 km/h (2 Bft) 95,74 %
20.07.2017 01:10 20,6 C 20,0 C 18,9 C 90 % 0 lf 1007,3 hPa 0,0 l/m 0 min 0 min 0 W/m 10,5 km/h (2 Bft) 93,62 %
20.07.2017 01:12 20,6 C 20,0 C 18,9 C 90 % 0 lf 1007,4 hPa 0,0 l/m 0 min 0 min 0 W/m 10,5 km/h (2 Bft) 93,62 %
20.07.2017 01:14 20,6 C 20,0 C 18,9 C 90 % 0 lf 1007,6 hPa 0,0 l/m 0 min 0 min 0 W/m 8,4 km/h (2 Bft) 89,36 %
20.07.2017 01:16 20,6 C 20,0 C 18,9 C 90 % 0 lf 1007,5 hPa 0,0 l/m 0 min 0 min 0 W/m 10,5 km/h (2 Bft) 93,48 %
20.07.2017 01:18 20,6 C 20,0 C 18,9 C 90 % 0 lf 1007,5 hPa 0,0 l/m 0 min 0 min 0 W/m 12,6 km/h (3 Bft) 91,49 %
20.07.2017 01:20 20,6 C 20,0 C 18,9 C 90 % 0 lf 1007,5 hPa 0,0 l/m 0 min 0 min 0 W/m 10,5 km/h (2 Bft) 92,00 %
20.07.2017 01:22 20,6 C 20,0 C 18,9 C 90 % 0 lf 1007,5 hPa 0,0 l/m 0 min 0 min 0 W/m 8,4 km/h (2 Bft) 91,49 %
20.07.2017 01:24 20,6 C 20,0 C 18,9 C 91 % 0 lf 1007,5 hPa 0,0 l/m 0 min 0 min 0 W/m 10,5 km/h (2 Bft) 91,49 %
20.07.2017 01:26 20,6 C 20,0 C 18,9 C 91 % 0 lf 1007,6 hPa 0,0 l/m 0 min 0 min 0 W/m 12,6 km/h (3 Bft) 89,13 %
20.07.2017 01:28 20,6 C 20,0 C 18,9 C 91 % 0 lf 1007,5 hPa 0,0 l/m 0 min 0 min 0 W/m 12,6 km/h (3 Bft) 93,62 %
20.07.2017 01:30 20,6 C 20,0 C 18,9 C 91 % 0 lf 1007,6 hPa 0,0 l/m 0 min 0 min 0 W/m 10,5 km/h (2 Bft) 93,62 %
20.07.2017 01:32 20,6 C 20,0 C 18,9 C 91 % 0 lf 1007,5 hPa 0,0 l/m 0 min 0 min 0 W/m 12,6 km/h (3 Bft) 93,62 %
20.07.2017 01:34 20,6 C 20,0 C 18,9 C 91 % 0 lf 1007,6 hPa 0,0 l/m 0 min 0 min 0 W/m 12,6 km/h (3 Bft) 93,62 %
20.07.2017 01:36 20,6 C 20,0 C 18,9 C 91 % 0 lf 1007,7 hPa 0,0 l/m 0 min 0 min 0 W/m 14,6 km/h (3 Bft) 91,67 %
20.07.2017 01:38 20,5 C 20,0 C 18,9 C 91 % 0 lf 1007,7 hPa 0,0 l/m 0 min 0 min 0 W/m 10,5 km/h (2 Bft) 93,62 %
20.07.2017 01:40 20,5 C 20,0 C 18,9 C 91 % 0 lf 1007,7 hPa 0,0 l/m 0 min 0 min 0 W/m 8,4 km/h (2 Bft) 93,62 %
20.07.2017 01:42 20,5 C 20,0 C 18,9 C 91 % 0 lf 1007,6 hPa 0,0 l/m 0 min 0 min 0 W/m 8,4 km/h (2 Bft) 82,86 %
20.07.2017 01:44 20,5 C 20,0 C 18,9 C 91 % 0 lf 1007,7 hPa 0,0 l/m 0 min 0 min 0 W/m 8,4 km/h (2 Bft) 95,74 %
20.07.2017 01:46 20,5 C 20,0 C 18,9 C 91 % 0 lf 1007,6 hPa 0,0 l/m 0 min 0 min 0 W/m 8,4 km/h (2 Bft) 91,49 %
20.07.2017 01:48 20,5 C 20,0 C 18,9 C 91 % 0 lf 1007,7 hPa 0,0 l/m 0 min 0 min 0 W/m 6,3 km/h (2 Bft) 95,74 %
20.07.2017 01:50 20,5 C 20,0 C 18,9 C 91 % 0 lf 1007,9 hPa 0,0 l/m 0 min 0 min 0 W/m 4,2 km/h (1 Bft) 91,38 %
20.07.2017 01:52 20,5 C 20,0 C 18,9 C 91 % 0 lf 1007,9 hPa 0,0 l/m 0 min 0 min 0 W/m 8,4 km/h (2 Bft) 97,14 %
20.07.2017 01:54 20,5 C 20,0 C 18,9 C 91 % 0 lf 1007,9 hPa 0,0 l/m 0 min 0 min 0 W/m 8,4 km/h (2 Bft) 93,62 %
20.07.2017 01:56 20,5 C 20,0 C 18,9 C 91 % 3 lf 1007,9 hPa 0,0 l/m 0 min 0 min 0 W/m 4,2 km/h (1 Bft) 93,62 %
20.07.2017 01:58 20,5 C 20,0 C 18,9 C 91 % 11 lf 1008,0 hPa 0,0 l/m 0 min 2 min 0 W/m 6,3 km/h (2 Bft) 93,62 %
20.07.2017 02:00 20,5 C 20,0 C 18,9 C 91 % 15 lf 1007,9 hPa 0,0 l/m 0 min 2 min 0 W/m 6,3 km/h (2 Bft) 91,49 %
20.07.2017 02:02 20,5 C 20,0 C 18,3 C 91 % 15 lf 1007,8 hPa 0,0 l/m 0 min 2 min 0 W/m 6,3 km/h (2 Bft) 97,83 %
20.07.2017 02:04 20,4 C 20,0 C 18,3 C 91 % 15 lf 1007,8 hPa 0,0 l/m 0 min 2 min 0 W/m 6,3 km/h (2 Bft) 100,00 %
20.07.2017 02:06 20,4 C 20,0 C 18,3 C 91 % 15 lf 1007,8 hPa 0,0 l/m 0 min 2 min 0 W/m 2,1 km/h (1 Bft) 96,61 %
20.07.2017 02:08 20,4 C 20,0 C 18,3 C 91 % 15 lf 1007,8 hPa 0,0 l/m 0 min 0 min 0 W/m 0,0 km/h (0 Bft) 100,00 %
20.07.2017 02:10 20,4 C 20,0 C 18,3 C 91 % 15 lf 1007,7 hPa 0,0 l/m 0 min 2 min 0 W/m 0,0 km/h (0 Bft) 100,00 %
20.07.2017 02:12 20,4 C 20,0 C 18,3 C 91 % 15 lf 1007,7 hPa 0,0 l/m 0 min 0 min 0 W/m 0,0 km/h (0 Bft) 97,83 %
20.07.2017 02:14 20,4 C 20,0 C 18,3 C 91 % 15 lf 1007,6 hPa 0,0 l/m 0 min 2 min 0 W/m 0,0 km/h (0 Bft) 100,00 %
20.07.2017 02:16 20,4 C 19,4 C 18,3 C 91 % 15 lf 1007,7 hPa 0,0 l/m 0 min 2 min 0 W/m 2,1 km/h (1 Bft) 97,87 %
20.07.2017 02:18 20,4 C 19,4 C 18,3 C 91 % 15 lf 1007,7 hPa 0,0 l/m 0 min 2 min 0 W/m 6,3 km/h (2 Bft) 100,00 %
20.07.2017 02:20 20,4 C 19,4 C 18,3 C 92 % 15 lf 1007,6 hPa 0,0 l/m 0 min 2 min 0 W/m 10,5 km/h (2 Bft) 95,74 %
20.07.2017 02:22 20,4 C 19,4 C 18,3 C 92 % 15 lf 1007,5 hPa 0,0 l/m 0 min 2 min 0 W/m 10,5 km/h (2 Bft) 97,14 %
20.07.2017 02:24 20,4 C 19,4 C 18,3 C 92 % 15 lf 1007,4 hPa 0,0 l/m 0 min 0 min 0 W/m 14,6 km/h (3 Bft) 100,00 %
20.07.2017 02:26 20,4 C 19,4 C 18,3 C 92 % 14 lf 1007,3 hPa 0,0 l/m 0 min 2 min 0 W/m 10,5 km/h (2 Bft) 100,00 %
20.07.2017 02:28 20,4 C 19,4 C 18,3 C 92 % 13 lf 1007,3 hPa 0,0 l/m 0 min 0 min 0 W/m 10,5 km/h (2 Bft) 100,00 %
20.07.2017 02:30 20,4 C 19,4 C 18,3 C 92 % 11 lf 1007,3 hPa 0,0 l/m 0 min 0 min 0 W/m 14,6 km/h (3 Bft) 100,00 %
20.07.2017 02:32 20,4 C 19,4 C 18,3 C 92 % 7 lf 1007,3 hPa 0,0 l/m 0 min 0 min 0 W/m 8,4 km/h (2 Bft) 97,87 %
20.07.2017 02:34 20,4 C 19,4 C 18,3 C 92 % 4 lf 1007,4 hPa 0,0 l/m 0 min 0 min 0 W/m 6,3 km/h (2 Bft) 97,87 %
20.07.2017 02:36 20,4 C 19,4 C 18,3 C 92 % 2 lf 1007,3 hPa 0,0 l/m 0 min 0 min 0 W/m 8,4 km/h (2 Bft) 100,00 %
20.07.2017 02:38 20,4 C 19,4 C 18,3 C 92 % 1 lf 1007,3 hPa 0,0 l/m 0 min 0 min 0 W/m 6,3 km/h (2 Bft) 97,83 %
20.07.2017 02:40 20,3 C 19,4 C 18,3 C 92 % 0 lf 1007,2 hPa 0,0 l/m 0 min 0 min 0 W/m 8,4 km/h (2 Bft) 97,87 %
20.07.2017 02:42 20,3 C 19,4 C 18,3 C 92 % 2 lf 1007,2 hPa 0,0 l/m 0 min 2 min 0 W/m 6,3 km/h (2 Bft) 100,00 %
20.07.2017 02:44 20,3 C 19,4 C 18,3 C 92 % 1 lf 1007,2 hPa 0,0 l/m 0 min 2 min 0 W/m 8,4 km/h (2 Bft) 100,00 %
20.07.2017 02:46 20,3 C 18,9 C 18,3 C 92 % 2 lf 1007,2 hPa 0,2 l/m 0 min 2 min 0 W/m 6,3 km/h (2 Bft) 100,00 %
20.07.2017 02:48 20,3 C 18,9 C 17,8 C 92 % 3 lf 1007,2 hPa 0,0 l/m 0 min 2 min 0 W/m 6,3 km/h (2 Bft) 97,87 %
20.07.2017 02:50 20,3 C 18,9 C 17,8 C 92 % 2 lf 1007,1 hPa 0,0 l/m 0 min 2 min 0 W/m 4,2 km/h (1 Bft) 100,00 %
20.07.2017 02:52 20,3 C 18,9 C 17,8 C 92 % 1 lf 1007,1 hPa 0,0 l/m 0 min 2 min 0 W/m 4,2 km/h (1 Bft) 97,14 %
20.07.2017 02:54 20,3 C 18,9 C 17,8 C 92 % 1 lf 1007,0 hPa 0,0 l/m 0 min 0 min 0 W/m 4,2 km/h (1 Bft) 100,00 %
20.07.2017 02:56 20,2 C 18,9 C 17,8 C 92 % 1 lf 1006,9 hPa 0,0 l/m 0 min 0 min 0 W/m 6,3 km/h (2 Bft) 100,00 %
20.07.2017 02:58 20,2 C 18,9 C 17,8 C 93 % 0 lf 1007,0 hPa 0,0 l/m 0 min 0 min 0 W/m 6,3 km/h (2 Bft) 100,00 %
20.07.2017 03:00 20,2 C 18,9 C 17,8 C 93 % 0 lf 1006,9 hPa 0,0 l/m 0 min 0 min 0 W/m 6,3 km/h (2 Bft) 100,00 %
20.07.2017 03:02 20,2 C 18,9 C 17,8 C 93 % 1 lf 1006,9 hPa 0,0 l/m 0 min 0 min 0 W/m 6,3 km/h (2 Bft) 97,83 %
20.07.2017 03:04 20,2 C 18,9 C 17,8 C 93 % 1 lf 1006,8 hPa 0,0 l/m 0 min 0 min 0 W/m 8,4 km/h (2 Bft) 100,00 %
20.07.2017 03:06 20,2 C 18,9 C 17,8 C 93 % 0 lf 1006,8 hPa 0,0 l/m 0 min 0 min 0 W/m 6,3 km/h (2 Bft) 100,00 %
20.07.2017 03:08 20,2 C 18,9 C 17,8 C 93 % 0 lf 1006,8 hPa 0,0 l/m 0 min 0 min 0 W/m 6,3 km/h (2 Bft) 97,87 %
20.07.2017 03:10 20,1 C 18,9 C 17,8 C 93 % 3 lf 1006,8 hPa 0,0 l/m 0 min 0 min 0 W/m 6,3 km/h (2 Bft) 100,00 %
20.07.2017 03:12 20,1 C 18,9 C 17,8 C 93 % 5 lf 1006,8 hPa 0,0 l/m 0 min 2 min 0 W/m 4,2 km/h (1 Bft) 100,00 %
20.07.2017 03:14 20,1 C 18,9 C 17,8 C 93 % 7 lf 1006,8 hPa 0,0 l/m 0 min 2 min 0 W/m 2,1 km/h (1 Bft) 100,00 %
20.07.2017 03:16 20,1 C 18,9 C 17,8 C 93 % 7 lf 1006,7 hPa 0,0 l/m 0 min 2 min 0 W/m 2,1 km/h (1 Bft) 97,87 %
20.07.2017 03:18 20,1 C 18,9 C 17,8 C 93 % 4 lf 1006,7 hPa 0,0 l/m 0 min 0 min 0 W/m 2,1 km/h (1 Bft) 93,62 %
20.07.2017 03:20 20,1 C 18,9 C 17,8 C 93 % 4 lf 1006,7 hPa 0,0 l/m 0 min 0 min 0 W/m 4,2 km/h (1 Bft) 97,87 %
20.07.2017 03:22 20,1 C 18,9 C 17,8 C 93 % 3 lf 1006,7 hPa 0,0 l/m 0 min 0 min 0 W/m 2,1 km/h (1 Bft) 95,74 %
20.07.2017 03:24 20,1 C 18,9 C 17,8 C 93 % 3 lf 1006,8 hPa 0,0 l/m 0 min 0 min 0 W/m 2,1 km/h (1 Bft) 100,00 %
20.07.2017 03:26 20,1 C 18,9 C 17,8 C 93 % 2 lf 1006,7 hPa 0,0 l/m 0 min 0 min 0 W/m 0,0 km/h (0 Bft) 95,65 %
20.07.2017 03:28 20,1 C 18,9 C 17,8 C 93 % 1 lf 1006,6 hPa 0,0 l/m 0 min 0 min 0 W/m 2,1 km/h (1 Bft) 95,74 %
20.07.2017 03:30 20,0 C 18,9 C 17,8 C 93 % 1 lf 1006,7 hPa 0,0 l/m 0 min 0 min 0 W/m 2,1 km/h (1 Bft) 93,62 %
20.07.2017 03:32 20,0 C 18,9 C 17,8 C 93 % 1 lf 1006,7 hPa 0,0 l/m 0 min 0 min 0 W/m 0,0 km/h (0 Bft) 95,74 %
20.07.2017 03:34 20,0 C 18,9 C 17,8 C 93 % 1 lf 1006,6 hPa 0,0 l/m 0 min 0 min 0 W/m 0,0 km/h (0 Bft) 93,62 %
20.07.2017 03:36 20,0 C 18,9 C 17,8 C 93 % 1 lf 1006,6 hPa 0,0 l/m 0 min 0 min 0 W/m 0,0 km/h (0 Bft) 93,48 %
20.07.2017 03:38 20,0 C 18,9 C 17,8 C 93 % 1 lf 1006,7 hPa 0,0 l/m 0 min 0 min 0 W/m 4,2 km/h (1 Bft) 97,87 %
20.07.2017 03:40 20,0 C 18,9 C 17,8 C 93 % 1 lf 1006,7 hPa 0,0 l/m 0 min 0 min 0 W/m 4,2 km/h (1 Bft) 95,74 %
20.07.2017 03:42 20,0 C 18,9 C 17,8 C 93 % 1 lf 1006,7 hPa 0,0 l/m 0 min 0 min 0 W/m 0,0 km/h (0 Bft) 95,74 %
20.07.2017 03:44 19,9 C 18,9 C 17,8 C 93 % 1 lf 1006,6 hPa 0,0 l/m 0 min 0 min 0 W/m 4,2 km/h (1 Bft) 95,74 %
20.07.2017 03:46 19,9 C 18,9 C 17,8 C 93 % 1 lf 1006,6 hPa 0,0 l/m 0 min 0 min 0 W/m 4,2 km/h (1 Bft) 95,74 %
20.07.2017 03:48 19,9 C 18,9 C 17,8 C 93 % 1 lf 1006,6 hPa 0,0 l/m 0 min 0 min 0 W/m 2,1 km/h (1 Bft) 95,65 %
20.07.2017 03:50 19,9 C 18,9 C 17,8 C 93 % 0 lf 1006,5 hPa 0,0 l/m 0 min 0 min 0 W/m 2,1 km/h (1 Bft) 95,74 %
20.07.2017 03:52 19,9 C 18,9 C 17,8 C 93 % 0 lf 1006,5 hPa 0,0 l/m 0 min 0 min 0 W/m 0,0 km/h (0 Bft) 95,74 %
20.07.2017 03:54 19,9 C 19,4 C 17,8 C 93 % 0 lf 1006,4 hPa 0,0 l/m 0 min 0 min 0 W/m 0,0 km/h (0 Bft) 97,87 %
20.07.2017 03:56 19,9 C 19,4 C 17,8 C 93 % 1 lf 1006,4 hPa 0,0 l/m 0 min 0 min 0 W/m 2,1 km/h (1 Bft) 95,74 %
20.07.2017 03:58 19,9 C 19,4 C 17,8 C 93 % 1 lf 1006,4 hPa 0,0 l/m 0 min 0 min 0 W/m 2,1 km/h (1 Bft) 95,74 %
20.07.2017 04:00 19,9 C 19,4 C 17,8 C 94 % 1 lf 1006,3 hPa 0,0 l/m 0 min 0 min 0 W/m 0,0 km/h (0 Bft) 95,65 %
20.07.2017 04:02 19,9 C 19,4 C 17,8 C 94 % 1 lf 1006,3 hPa 0,0 l/m 0 min 0 min 0 W/m 2,1 km/h (1 Bft) 100,00 %
20.07.2017 04:04 19,9 C 19,4 C 17,8 C 94 % 1 lf 1006,3 hPa 0,0 l/m 0 min 0 min 0 W/m 4,2 km/h (1 Bft) 100,00 %
20.07.2017 04:06 19,9 C 19,4 C 17,8 C 94 % 1 lf 1006,4 hPa 0,0 l/m 0 min 0 min 0 W/m 8,4 km/h (2 Bft) 94,00 %
20.07.2017 04:08 19,9 C 19,4 C 17,8 C 94 % 1 lf 1006,4 hPa 0,0 l/m 0 min 0 min 0 W/m 8,4 km/h (2 Bft) 97,87 %
20.07.2017 04:10 19,9 C 19,4 C 17,8 C 94 % 1 lf 1006,2 hPa 0,0 l/m 0 min 0 min 0 W/m 6,3 km/h (2 Bft) 97,87 %
20.07.2017 04:12 19,9 C 19,4 C 17,8 C 94 % 1 lf 1006,2 hPa 0,0 l/m 0 min 0 min 0 W/m 4,2 km/h (1 Bft) 95,65 %
20.07.2017 04:14 19,9 C 19,4 C 17,8 C 94 % 1 lf 1006,3 hPa 0,0 l/m 0 min 0 min 0 W/m 4,2 km/h (1 Bft) 97,87 %
20.07.2017 04:16 19,9 C 19,4 C 17,8 C 94 % 1 lf 1006,2 hPa 0,0 l/m 0 min 0 min 0 W/m 4,2 km/h (1 Bft) 97,87 %
20.07.2017 04:18 19,9 C 19,4 C 17,8 C 94 % 1 lf 1006,3 hPa 0,0 l/m 0 min 0 min 0 W/m 2,1 km/h (1 Bft) 95,74 %
20.07.2017 04:20 19,9 C 19,4 C 17,8 C 94 % 1 lf 1006,3 hPa 0,0 l/m 0 min 0 min 0 W/m 4,2 km/h (1 Bft) 95,83 %
20.07.2017 04:22 19,9 C 19,4 C 17,8 C 94 % 1 lf 1006,3 hPa 0,0 l/m 0 min 0 min 0 W/m 2,1 km/h (1 Bft) 97,87 %
20.07.2017 04:24 19,9 C 19,4 C 17,8 C 94 % 1 lf 1006,3 hPa 0,0 l/m 0 min 0 min 0 W/m 4,2 km/h (1 Bft) 95,74 %
20.07.2017 04:26 19,9 C 19,4 C 18,3 C 94 % 1 lf 1006,3 hPa 0,0 l/m 0 min 0 min 0 W/m 4,2 km/h (1 Bft) 97,87 %
20.07.2017 04:28 19,9 C 19,4 C 18,3 C 94 % 1 lf 1006,3 hPa 0,0 l/m 0 min 0 min 0 W/m 4,2 km/h (1 Bft) 97,87 %
20.07.2017 04:30 19,9 C 19,4 C 18,3 C 94 % 0 lf 1006,3 hPa 0,0 l/m 0 min 0 min 0 W/m 2,1 km/h (1 Bft) 97,87 %
20.07.2017 04:32 19,9 C 19,4 C 18,3 C 94 % 0 lf 1006,3 hPa 0,0 l/m 0 min 0 min 0 W/m 4,2 km/h (1 Bft) 97,14 %
20.07.2017 04:34 19,8 C 19,4 C 18,3 C 95 % 0 lf 1006,3 hPa 0,0 l/m 0 min 0 min 0 W/m 4,2 km/h (1 Bft) 97,83 %
20.07.2017 04:36 19,8 C 19,4 C 18,3 C 95 % 0 lf 1006,3 hPa 0,0 l/m 0 min 0 min 0 W/m 4,2 km/h (1 Bft) 97,87 %
20.07.2017 04:38 19,8 C 19,4 C 18,3 C 95 % 0 lf 1006,3 hPa 0,0 l/m 0 min 0 min 0 W/m 4,2 km/h (1 Bft) 91,49 %
20.07.2017 04:40 19,8 C 19,4 C 18,3 C 95 % 0 lf 1006,4 hPa 0,0 l/m 0 min 0 min 0 W/m 4,2 km/h (1 Bft) 93,62 %
20.07.2017 04:42 19,8 C 19,4 C 18,3 C 95 % 0 lf 1006,8 hPa 0,0 l/m 0 min 0 min 0 W/m 16,7 km/h (3 Bft) 93,62 %
20.07.2017 04:44 19,8 C 19,4 C 18,3 C 95 % 0 lf 1007,0 hPa 0,0 l/m 0 min 0 min 0 W/m 20,9 km/h (4 Bft) 93,62 %
20.07.2017 04:46 19,8 C 19,4 C 18,3 C 95 % 0 lf 1006,7 hPa 0,0 l/m 0 min 0 min 0 W/m 18,8 km/h (3 Bft) 95,65 %
20.07.2017 04:48 19,8 C 19,4 C 18,3 C 95 % 12 lf 1006,5 hPa 0,0 l/m 0 min 0 min 0 W/m 4,2 km/h (1 Bft) 95,74 %
20.07.2017 04:50 19,8 C 19,4 C 18,3 C 95 % 15 lf 1006,7 hPa 0,0 l/m 0 min 2 min 0 W/m 10,5 km/h (2 Bft) 95,74 %
20.07.2017 04:52 19,8 C 19,4 C 18,3 C 95 % 15 lf 1006,6 hPa 0,0 l/m 0 min 0 min 0 W/m 12,6 km/h (3 Bft) 95,74 %
20.07.2017 04:54 19,8 C 19,4 C 18,3 C 95 % 15 lf 1006,4 hPa 0,0 l/m 0 min 0 min 0 W/m 8,4 km/h (2 Bft) 95,74 %
20.07.2017 04:56 19,8 C 19,4 C 18,3 C 95 % 15 lf 1006,4 hPa 0,0 l/m 0 min 2 min 0 W/m 4,2 km/h (1 Bft) 95,74 %
20.07.2017 04:58 19,8 C 19,4 C 17,8 C 95 % 15 lf 1006,4 hPa 0,0 l/m 0 min 0 min 0 W/m 6,3 km/h (2 Bft) 93,48 %
20.07.2017 05:00 19,8 C 19,4 C 17,8 C 95 % 15 lf 1006,4 hPa 0,0 l/m 0 min 2 min 0 W/m 4,2 km/h (1 Bft) 95,74 %
20.07.2017 05:02 19,8 C 19,4 C 17,8 C 95 % 15 lf 1006,4 hPa 0,0 l/m 0 min 2 min 0 W/m 6,3 km/h (2 Bft) 92,45 %
20.07.2017 05:04 19,8 C 19,4 C 17,8 C 95 % 15 lf 1006,4 hPa 0,0 l/m 0 min 2 min 0 W/m 2,1 km/h (1 Bft) 95,74 %
20.07.2017 05:06 19,8 C 19,4 C 17,8 C 95 % 15 lf 1006,5 hPa 0,0 l/m 0 min 2 min 0 W/m 0,0 km/h (0 Bft) 96,00 %
20.07.2017 05:08 19,8 C 19,4 C 17,8 C 95 % 15 lf 1006,5 hPa 0,0 l/m 0 min 2 min 0 W/m 0,0 km/h (0 Bft) 95,74 %
20.07.2017 05:10 19,8 C 19,4 C 17,8 C 95 % 15 lf 1006,5 hPa 0,0 l/m 0 min 2 min 0 W/m 4,2 km/h (1 Bft) 97,83 %
20.07.2017 05:12 19,8 C 19,4 C 17,8 C 95 % 15 lf 1006,6 hPa 0,0 l/m 0 min 2 min 0 W/m 2,1 km/h (1 Bft) 97,92 %
20.07.2017 05:14 19,8 C 19,4 C 17,8 C 95 % 15 lf 1006,5 hPa 0,0 l/m 0 min 2 min 0 W/m 2,1 km/h (1 Bft) 93,62 %
20.07.2017 05:16 19,7 C 19,4 C 17,8 C 95 % 15 lf 1006,5 hPa 0,0 l/m 0 min 2 min 0 W/m 0,0 km/h (0 Bft) 95,74 %
20.07.2017 05:18 19,7 C 19,4 C 17,8 C 95 % 15 lf 1006,7 hPa 0,0 l/m 0 min 2 min 0 W/m 6,3 km/h (2 Bft) 89,36 %
20.07.2017 05:20 19,7 C 18,9 C 17,8 C 95 % 15 lf 1006,8 hPa 0,0 l/m 0 min 2 min 0 W/m 14,6 km/h (3 Bft) 97,87 %
20.07.2017 05:22 19,7 C 18,9 C 17,8 C 95 % 15 lf 1007,3 hPa 0,0 l/m 0 min 2 min 0 W/m 20,9 km/h (4 Bft) 95,65 %
20.07.2017 05:24 19,7 C 18,9 C 17,8 C 95 % 15 lf 1007,8 hPa 0,2 l/m 0 min 2 min 0 W/m 29,3 km/h (5 Bft) 95,74 %
20.07.2017 05:26 19,7 C 18,9 C 17,8 C 95 % 15 lf 1007,8 hPa 0,4 l/m 0 min 2 min 0 W/m 20,9 km/h (4 Bft) 95,74 %
20.07.2017 05:28 19,7 C 18,3 C 17,8 C 95 % 15 lf 1007,5 hPa 1,2 l/m 0 min 2 min 0 W/m 27,2 km/h (4 Bft) 95,74 %
20.07.2017 05:30 19,7 C 18,3 C 17,8 C 95 % 15 lf 1007,4 hPa 1,2 l/m 0 min 2 min 0 W/m 10,5 km/h (2 Bft) 93,62 %
20.07.2017 05:32 19,7 C 18,3 C 17,8 C 95 % 15 lf 1007,7 hPa 1,2 l/m 0 min 2 min 0 W/m 14,6 km/h (3 Bft) 97,87 %
20.07.2017 05:34 19,7 C 18,3 C 17,8 C 95 % 15 lf 1007,9 hPa 1,0 l/m 0 min 2 min 0 W/m 14,6 km/h (3 Bft) 95,74 %
20.07.2017 05:36 19,6 C 18,3 C 17,2 C 95 % 15 lf 1007,6 hPa 1,2 l/m 0 min 2 min 0 W/m 10,5 km/h (2 Bft) 88,89 %
20.07.2017 05:38 19,6 C 18,3 C 17,2 C 95 % 15 lf 1007,0 hPa 1,2 l/m 0 min 2 min 0 W/m 10,5 km/h (2 Bft) 97,87 %
20.07.2017 05:40 19,6 C 18,3 C 17,2 C 95 % 15 lf 1006,5 hPa 1,0 l/m 0 min 2 min 0 W/m 10,5 km/h (2 Bft) 97,87 %
20.07.2017 05:42 19,5 C 18,3 C 17,2 C 95 % 15 lf 1006,2 hPa 1,0 l/m 0 min 2 min 0 W/m 10,5 km/h (2 Bft) 97,87 %
20.07.2017 05:44 19,5 C 18,3 C 17,2 C 96 % 15 lf 1006,1 hPa 0,8 l/m 0 min 2 min 0 W/m 8,4 km/h (2 Bft) 97,87 %
20.07.2017 05:46 19,4 C 18,3 C 17,2 C 96 % 15 lf 1006,2 hPa 1,0 l/m 0 min 2 min 0 W/m 4,2 km/h (1 Bft) 93,48 %
20.07.2017 05:48 19,4 C 18,3 C 17,2 C 95 % 15 lf 1006,5 hPa 0,6 l/m 0 min 2 min 0 W/m 8,4 km/h (2 Bft) 93,62 %
20.07.2017 05:50 19,4 C 18,3 C 17,2 C 95 % 15 lf 1006,6 hPa 0,6 l/m 0 min 2 min 0 W/m 10,5 km/h (2 Bft) 98,31 %
20.07.2017 05:52 19,4 C 18,3 C 17,2 C 96 % 15 lf 1006,6 hPa 0,4 l/m 0 min 2 min 0 W/m 10,5 km/h (2 Bft) 94,29 %
20.07.2017 05:54 19,4 C 18,3 C 17,2 C 96 % 15 lf 1006,7 hPa 0,2 l/m 0 min 2 min 0 W/m 8,4 km/h (2 Bft) 97,87 %
20.07.2017 05:56 19,3 C 18,3 C 17,2 C 96 % 15 lf 1006,8 hPa 0,2 l/m 0 min 2 min 0 W/m 4,2 km/h (1 Bft) 97,87 %
20.07.2017 05:58 19,3 C 18,3 C 17,2 C 96 % 15 lf 1007,1 hPa 0,0 l/m 0 min 2 min 0 W/m 14,6 km/h (3 Bft) 100,00 %
20.07.2017 06:00 19,3 C 18,3 C 17,2 C 96 % 15 lf 1007,2 hPa 0,0 l/m 0 min 2 min 0 W/m 14,6 km/h (3 Bft) 97,87 %
20.07.2017 06:02 19,3 C 18,3 C 17,2 C 96 % 15 lf 1007,1 hPa 0,0 l/m 0 min 2 min 0 W/m 12,6 km/h (3 Bft) 100,00 %
20.07.2017 06:04 19,2 C 18,3 C 17,2 C 96 % 15 lf 1007,1 hPa 0,0 l/m 0 min 2 min 0 W/m 8,4 km/h (2 Bft) 100,00 %
20.07.2017 06:06 19,2 C 18,3 C 17,2 C 96 % 15 lf 1007,2 hPa 0,2 l/m 0 min 2 min 5 W/m 10,5 km/h (2 Bft) 95,74 %
20.07.2017 06:10 19,2 C 18,3 C 17,2 C 96 % 15 lf 1007,0 hPa 0,0 l/m 0 min 4 min 6 W/m 8,4 km/h (2 Bft) 98,92 %
20.07.2017 06:12 19,2 C 18,3 C 17,2 C 96 % 15 lf 1007,1 hPa 0,0 l/m 0 min 2 min 7 W/m 6,3 km/h (2 Bft) 95,74 %
20.07.2017 06:14 19,2 C 18,3 C 17,2 C 96 % 15 lf 1007,2 hPa 0,0 l/m 0 min 0 min 8 W/m 6,3 km/h (2 Bft) 97,87 %
20.07.2017 06:16 19,1 C 18,3 C 17,2 C 96 % 15 lf 1007,2 hPa 0,0 l/m 0 min 0 min 9 W/m 8,4 km/h (2 Bft) 97,87 %
20.07.2017 06:18 19,1 C 18,3 C 17,2 C 96 % 15 lf 1007,2 hPa 0,0 l/m 0 min 0 min 7 W/m 10,5 km/h (2 Bft) 97,87 %
20.07.2017 06:20 19,1 C 18,3 C 17,2 C 96 % 15 lf 1007,3 hPa 0,0 l/m 0 min 0 min 7 W/m 10,5 km/h (2 Bft) 93,48 %
20.07.2017 06:22 19,1 C 18,3 C 17,2 C 96 % 15 lf 1007,4 hPa 0,0 l/m 0 min 0 min 6 W/m 10,5 km/h (2 Bft) 97,87 %
20.07.2017 06:24 19,1 C 18,3 C 17,2 C 96 % 15 lf 1007,4 hPa 0,0 l/m 0 min 0 min 5 W/m 14,6 km/h (3 Bft) 97,87 %
20.07.2017 06:26 19,1 C 18,3 C 17,2 C 96 % 15 lf 1007,4 hPa 0,0 l/m 0 min 0 min 5 W/m 16,7 km/h (3 Bft) 95,74 %
20.07.2017 06:28 19,1 C 18,3 C 17,2 C 96 % 15 lf 1007,5 hPa 0,0 l/m 0 min 0 min 3 W/m 8,4 km/h (2 Bft) 95,74 %
20.07.2017 06:30 19,1 C 18,3 C 17,2 C 96 % 15 lf 1007,4 hPa 0,0 l/m 0 min 0 min 0 W/m 10,5 km/h (2 Bft) 95,74 %
20.07.2017 06:32 19,0 C 18,3 C 17,2 C 96 % 15 lf 1007,4 hPa 0,0 l/m 0 min 0 min 0 W/m 12,6 km/h (3 Bft) 95,65 %
20.07.2017 06:34 19,0 C 18,3 C 17,2 C 96 % 15 lf 1007,4 hPa 0,0 l/m 0 min 2 min 0 W/m 12,6 km/h (3 Bft) 97,87 %
20.07.2017 06:36 19,0 C 18,3 C 17,2 C 97 % 15 lf 1007,4 hPa 0,0 l/m 0 min 2 min 0 W/m 10,5 km/h (2 Bft) 97,87 %
20.07.2017 06:38 18,9 C 18,3 C 17,2 C 97 % 15 lf 1007,5 hPa 0,0 l/m 0 min 2 min 0 W/m 18,8 km/h (3 Bft) 97,87 %
20.07.2017 06:40 18,9 C 18,3 C 17,2 C 97 % 15 lf 1007,6 hPa 0,2 l/m 0 min 2 min 0 W/m 16,7 km/h (3 Bft) 95,74 %
20.07.2017 06:42 18,9 C 18,3 C 17,2 C 97 % 15 lf 1007,5 hPa 0,0 l/m 0 min 2 min 0 W/m 18,8 km/h (3 Bft) 89,36 %
20.07.2017 06:44 18,9 C 18,3 C 17,2 C 97 % 15 lf 1007,5 hPa 0,2 l/m 0 min 2 min 0 W/m 14,6 km/h (3 Bft) 97,83 %
20.07.2017 06:46 18,9 C 18,3 C 17,2 C 97 % 15 lf 1007,5 hPa 0,0 l/m 0 min 2 min 0 W/m 18,8 km/h (3 Bft) 93,62 %
20.07.2017 06:48 18,9 C 18,3 C 17,2 C 97 % 15 lf 1007,6 hPa 0,0 l/m 0 min 2 min 0 W/m 16,7 km/h (3 Bft) 97,87 %
20.07.2017 06:50 18,9 C 18,3 C 17,2 C 97 % 15 lf 1007,6 hPa 0,0 l/m 0 min 2 min 0 W/m 20,9 km/h (4 Bft) 95,74 %
20.07.2017 06:52 18,9 C 18,3 C 17,2 C 97 % 15 lf 1007,7 hPa 0,0 l/m 0 min 2 min 0 W/m 12,6 km/h (3 Bft) 97,87 %
20.07.2017 06:54 18,8 C 18,3 C 17,2 C 97 % 15 lf 1007,6 hPa 0,2 l/m 0 min 2 min 3 W/m 14,6 km/h (3 Bft) 97,87 %
20.07.2017 06:56 18,8 C 17,8 C 17,2 C 97 % 15 lf 1007,7 hPa 0,0 l/m 0 min 2 min 5 W/m 14,6 km/h (3 Bft) 100,00 %
20.07.2017 06:58 18,8 C 17,8 C 17,2 C 97 % 15 lf 1007,7 hPa 0,0 l/m 0 min 2 min 5 W/m 14,6 km/h (3 Bft) 100,00 %
20.07.2017 07:00 18,8 C 17,8 C 17,2 C 97 % 15 lf 1007,7 hPa 0,0 l/m 0 min 2 min 7 W/m 10,5 km/h (2 Bft) 95,74 %
20.07.2017 07:02 18,8 C 17,8 C 17,2 C 97 % 15 lf 1007,6 hPa 0,0 l/m 0 min 2 min 7 W/m 12,6 km/h (3 Bft) 97,87 %
20.07.2017 07:04 18,7 C 17,8 C 17,2 C 97 % 15 lf 1007,7 hPa 0,0 l/m 0 min 2 min 7 W/m 10,5 km/h (2 Bft) 97,87 %
20.07.2017 07:06 18,7 C 17,8 C 17,2 C 97 % 15 lf 1007,6 hPa 0,0 l/m 0 min 2 min 7 W/m 8,4 km/h (2 Bft) 100,00 %
20.07.2017 07:08 18,7 C 17,8 C 17,2 C 97 % 15 lf 1007,6 hPa 0,2 l/m 0 min 2 min 5 W/m 12,6 km/h (3 Bft) 97,83 %
20.07.2017 07:10 18,7 C 17,8 C 17,2 C 97 % 15 lf 1007,6 hPa 0,0 l/m 0 min 2 min 5 W/m 8,4 km/h (2 Bft) 97,87 %
20.07.2017 07:12 18,7 C 17,8 C 17,2 C 97 % 15 lf 1007,6 hPa 0,0 l/m 0 min 2 min 6 W/m 8,4 km/h (2 Bft) 95,74 %
20.07.2017 07:14 18,7 C 17,8 C 17,2 C 97 % 15 lf 1007,6 hPa 0,0 l/m 0 min 2 min 7 W/m 6,3 km/h (2 Bft) 100,00 %
20.07.2017 07:16 18,6 C 17,8 C 17,2 C 97 % 15 lf 1007,5 hPa 0,0 l/m 0 min 2 min 8 W/m 8,4 km/h (2 Bft) 93,62 %
20.07.2017 07:18 18,6 C 17,8 C 17,2 C 97 % 15 lf 1007,5 hPa 0,0 l/m 0 min 2 min 11 W/m 10,5 km/h (2 Bft) 95,65 %
20.07.2017 07:20 18,6 C 17,8 C 17,2 C 97 % 15 lf 1007,5 hPa 0,0 l/m 0 min 2 min 12 W/m 10,5 km/h (2 Bft) 95,74 %
20.07.2017 07:22 18,6 C 17,8 C 17,2 C 97 % 15 lf 1007,5 hPa 0,0 l/m 0 min 2 min 13 W/m 8,4 km/h (2 Bft) 93,62 %
20.07.2017 07:24 18,6 C 17,8 C 17,2 C 97 % 15 lf 1007,5 hPa 0,0 l/m 0 min 0 min 14 W/m 8,4 km/h (2 Bft) 95,74 %
20.07.2017 07:26 18,5 C 17,8 C 17,2 C 97 % 15 lf 1007,5 hPa 0,0 l/m 0 min 0 min 16 W/m 10,5 km/h (2 Bft) 91,49 %
20.07.2017 07:28 18,5 C 17,8 C 16,7 C 97 % 15 lf 1007,5 hPa 0,0 l/m 0 min 0 min 17 W/m 12,6 km/h (3 Bft) 95,74 %
20.07.2017 07:30 18,5 C 17,8 C 17,2 C 97 % 15 lf 1007,5 hPa 0,0 l/m 0 min 2 min 19 W/m 6,3 km/h (2 Bft) 95,74 %
20.07.2017 07:32 18,5 C 17,8 C 17,2 C 97 % 15 lf 1007,4 hPa 0,2 l/m 0 min 2 min 23 W/m 10,5 km/h (2 Bft) 95,65 %
20.07.2017 07:34 18,4 C 17,8 C 17,2 C 97 % 15 lf 1007,4 hPa 0,0 l/m 0 min 2 min 27 W/m 12,6 km/h (3 Bft) 97,87 %
20.07.2017 07:36 18,4 C 17,8 C 17,2 C 97 % 15 lf 1007,4 hPa 0,0 l/m 0 min 2 min 34 W/m 12,6 km/h (3 Bft) 93,62 %
20.07.2017 07:38 18,4 C 17,8 C 17,2 C 97 % 15 lf 1007,4 hPa 0,0 l/m 0 min 0 min 37 W/m 12,6 km/h (3 Bft) 95,74 %
20.07.2017 07:40 18,4 C 17,8 C 17,2 C 97 % 15 lf 1007,4 hPa 0,0 l/m 0 min 2 min 37 W/m 8,4 km/h (2 Bft) 93,62 %
20.07.2017 07:42 18,4 C 17,8 C 17,2 C 97 % 15 lf 1007,4 hPa 0,0 l/m 0 min 0 min 38 W/m 6,3 km/h (2 Bft) 97,83 %
20.07.2017 07:44 18,4 C 17,8 C 17,2 C 97 % 15 lf 1007,4 hPa 0,0 l/m 0 min 2 min 39 W/m 10,5 km/h (2 Bft) 95,74 %
20.07.2017 07:46 18,4 C 17,8 C 17,2 C 97 % 15 lf 1007,4 hPa 0,0 l/m 0 min 2 min 41 W/m 8,4 km/h (2 Bft) 93,62 %
20.07.2017 07:48 18,4 C 17,8 C 17,2 C 97 % 15 lf 1007,3 hPa 0,0 l/m 0 min 2 min 47 W/m 8,4 km/h (2 Bft) 95,74 %
20.07.2017 07:50 18,4 C 17,8 C 17,2 C 97 % 15 lf 1007,3 hPa 0,0 l/m 0 min 0 min 50 W/m 8,4 km/h (2 Bft) 93,62 %
20.07.2017 07:52 18,4 C 18,3 C 17,2 C 97 % 15 lf 1007,2 hPa 0,0 l/m 0 min 0 min 47 W/m 12,6 km/h (3 Bft) 95,74 %
20.07.2017 07:54 18,4 C 18,3 C 17,2 C 98 % 15 lf 1007,2 hPa 0,0 l/m 0 min 0 min 48 W/m 10,5 km/h (2 Bft) 97,83 %
20.07.2017 07:56 18,4 C 18,3 C 17,2 C 98 % 15 lf 1007,2 hPa 0,0 l/m 0 min 0 min 52 W/m 6,3 km/h (2 Bft) 95,74 %
20.07.2017 07:58 18,5 C 18,3 C 17,2 C 98 % 15 lf 1007,2 hPa 0,0 l/m 0 min 0 min 54 W/m 8,4 km/h (2 Bft) 95,74 %
20.07.2017 08:00 18,5 C 18,3 C 17,2 C 98 % 15 lf 1007,2 hPa 0,0 l/m 0 min 0 min 60 W/m 10,5 km/h (2 Bft) 97,87 %
20.07.2017 08:02 18,5 C 18,3 C 17,8 C 98 % 15 lf 1007,2 hPa 0,0 l/m 0 min 0 min 68 W/m 6,3 km/h (2 Bft) 97,87 %
20.07.2017 08:04 18,5 C 18,3 C 17,8 C 98 % 15 lf 1007,2 hPa 0,0 l/m 0 min 0 min 86 W/m 6,3 km/h (2 Bft) 97,87 %
20.07.2017 08:06 18,6 C 18,3 C 17,8 C 98 % 15 lf 1007,1 hPa 0,0 l/m 0 min 0 min 100 W/m 8,4 km/h (2 Bft) 95,65 %
20.07.2017 08:08 18,6 C 18,3 C 17,8 C 98 % 15 lf 1007,1 hPa 0,0 l/m 0 min 0 min 111 W/m 6,3 km/h (2 Bft) 95,74 %
20.07.2017 08:10 18,6 C 18,9 C 17,8 C 98 % 15 lf 1007,1 hPa 0,0 l/m 0 min 0 min 121 W/m 6,3 km/h (2 Bft) 95,74 %
20.07.2017 08:12 18,6 C 18,9 C 17,8 C 98 % 15 lf 1007,2 hPa 0,0 l/m 0 min 0 min 130 W/m 6,3 km/h (2 Bft) 97,87 %
20.07.2017 08:14 18,7 C 18,9 C 18,3 C 98 % 15 lf 1007,1 hPa 0,0 l/m 0 min 0 min 142 W/m 6,3 km/h (2 Bft) 97,87 %
20.07.2017 08:16 18,7 C 18,9 C 18,3 C 98 % 15 lf 1007,2 hPa 0,0 l/m 0 min 0 min 152 W/m 8,4 km/h (2 Bft) 97,87 %
20.07.2017 08:18 18,7 C 19,4 C 18,3 C 98 % 15 lf 1007,2 hPa 0,0 l/m 0 min 0 min 159 W/m 6,3 km/h (2 Bft) 95,65 %
20.07.2017 08:20 18,8 C 19,4 C 18,9 C 98 % 15 lf 1007,2 hPa 0,0 l/m 0 min 0 min 163 W/m 6,3 km/h (2 Bft) 97,87 %
20.07.2017 08:22 18,8 C 19,4 C 18,3 C 98 % 15 lf 1007,1 hPa 0,0 l/m 0 min 0 min 170 W/m 6,3 km/h (2 Bft) 95,74 %
20.07.2017 08:24 18,9 C 19,4 C 18,9 C 98 % 15 lf 1007,1 hPa 0,0 l/m 0 min 0 min 158 W/m 6,3 km/h (2 Bft) 95,74 %
20.07.2017 08:26 18,9 C 19,4 C 18,9 C 98 % 15 lf 1007,0 hPa 0,0 l/m 0 min 0 min 151 W/m 6,3 km/h (2 Bft) 91,49 %
20.07.2017 08:28 18,9 C 19,4 C 18,9 C 98 % 15 lf 1007,0 hPa 0,0 l/m 0 min 0 min 148 W/m 8,4 km/h (2 Bft) 95,74 %
20.07.2017 08:30 19,0 C 19,4 C 18,9 C 98 % 15 lf 1007,0 hPa 0,0 l/m 0 min 0 min 150 W/m 8,4 km/h (2 Bft) 97,92 %
20.07.2017 08:32 19,1 C 19,4 C 18,9 C 98 % 15 lf 1007,0 hPa 0,0 l/m 0 min 0 min 144 W/m 10,5 km/h (2 Bft) 95,65 %
20.07.2017 08:34 19,1 C 19,4 C 18,9 C 98 % 15 lf 1007,1 hPa 0,0 l/m 0 min 0 min 138 W/m 6,3 km/h (2 Bft) 97,87 %
20.07.2017 08:36 19,1 C 19,4 C 18,9 C 98 % 15 lf 1007,1 hPa 0,0 l/m 0 min 0 min 134 W/m 6,3 km/h (2 Bft) 95,74 %
20.07.2017 08:38 19,2 C 19,4 C 18,9 C 98 % 15 lf 1007,1 hPa 0,0 l/m 0 min 0 min 135 W/m 12,6 km/h (3 Bft) 97,87 %
20.07.2017 08:40 19,2 C 19,4 C 18,9 C 98 % 15 lf 1007,1 hPa 0,0 l/m 0 min 0 min 142 W/m 12,6 km/h (3 Bft) 95,74 %
20.07.2017 08:42 19,3 C 19,4 C 18,9 C 98 % 15 lf 1007,2 hPa 0,0 l/m 0 min 0 min 149 W/m 8,4 km/h (2 Bft) 97,87 %
20.07.2017 08:44 19,3 C 20,0 C 18,9 C 99 % 15 lf 1007,1 hPa 0,0 l/m 0 min 0 min 118 W/m 4,2 km/h (1 Bft) 97,83 %
20.07.2017 08:46 19,3 C 20,0 C 18,9 C 99 % 15 lf 1007,1 hPa 0,0 l/m 0 min 0 min 117 W/m 10,5 km/h (2 Bft) 95,74 %
20.07.2017 08:48 19,3 C 19,4 C 18,9 C 99 % 15 lf 1007,1 hPa 0,0 l/m 0 min 0 min 118 W/m 14,6 km/h (3 Bft) 97,87 %
20.07.2017 08:50 19,4 C 19,4 C 18,9 C 99 % 15 lf 1007,1 hPa 0,0 l/m 0 min 0 min 117 W/m 10,5 km/h (2 Bft) 95,74 %
20.07.2017 08:52 19,4 C 19,4 C 18,9 C 99 % 15 lf 1007,2 hPa 0,0 l/m 0 min 0 min 114 W/m 18,8 km/h (3 Bft) 92,59 %
20.07.2017 08:54 19,4 C 19,4 C 18,9 C 98 % 15 lf 1007,2 hPa 0,0 l/m 0 min 0 min 114 W/m 14,6 km/h (3 Bft) 95,74 %
20.07.2017 08:56 19,5 C 19,4 C 18,9 C 98 % 15 lf 1007,2 hPa 0,0 l/m 0 min 0 min 117 W/m 10,5 km/h (2 Bft) 95,65 %
20.07.2017 08:58 19,5 C 20,0 C 18,9 C 98 % 15 lf 1007,2 hPa 0,0 l/m 0 min 0 min 120 W/m 10,5 km/h (2 Bft) 95,74 %
20.07.2017 09:00 19,6 C 20,0 C 18,9 C 98 % 15 lf 1007,2 hPa 0,0 l/m 0 min 0 min 122 W/m 14,6 km/h (3 Bft) 91,49 %
20.07.2017 09:02 19,6 C 20,0 C 19,4 C 98 % 15 lf 1007,2 hPa 0,0 l/m 0 min 0 min 123 W/m 18,8 km/h (3 Bft) 91,49 %
20.07.2017 09:04 19,6 C 20,0 C 19,4 C 98 % 15 lf 1007,2 hPa 0,0 l/m 0 min 0 min 121 W/m 14,6 km/h (3 Bft) 97,87 %
20.07.2017 09:06 19,6 C 20,0 C 19,4 C 98 % 15 lf 1007,2 hPa 0,0 l/m 0 min 0 min 116 W/m 14,6 km/h (3 Bft) 97,83 %
20.07.2017 09:08 19,6 C 20,0 C 19,4 C 98 % 15 lf 1007,3 hPa 0,0 l/m 0 min 0 min 113 W/m 12,6 km/h (3 Bft) 97,87 %
20.07.2017 09:10 19,7 C 20,0 C 19,4 C 99 % 15 lf 1007,3 hPa 0,0 l/m 0 min 0 min 114 W/m 12,6 km/h (3 Bft) 93,62 %
20.07.2017 09:12 19,7 C 20,0 C 19,4 C 99 % 15 lf 1007,3 hPa 0,0 l/m 0 min 0 min 119 W/m 10,5 km/h (2 Bft) 97,87 %
20.07.2017 09:14 19,7 C 20,0 C 19,4 C 99 % 15 lf 1007,3 hPa 0,0 l/m 0 min 0 min 126 W/m 8,4 km/h (2 Bft) 97,87 %
20.07.2017 09:16 19,7 C 20,0 C 19,4 C 99 % 15 lf 1007,3 hPa 0,0 l/m 0 min 0 min 134 W/m 10,5 km/h (2 Bft) 97,87 %
20.07.2017 09:18 19,7 C 20,0 C 19,4 C 99 % 15 lf 1007,3 hPa 0,0 l/m 0 min 0 min 141 W/m 12,6 km/h (3 Bft) 95,65 %
20.07.2017 09:20 19,8 C 20,0 C 19,4 C 99 % 15 lf 1007,3 hPa 0,0 l/m 0 min 0 min 150 W/m 12,6 km/h (3 Bft) 91,49 %
20.07.2017 09:22 19,8 C 20,6 C 19,4 C 99 % 15 lf 1007,3 hPa 0,0 l/m 0 min 0 min 156 W/m 8,4 km/h (2 Bft) 96,00 %
20.07.2017 09:24 19,8 C 20,0 C 20,0 C 99 % 15 lf 1007,4 hPa 0,0 l/m 0 min 0 min 166 W/m 12,6 km/h (3 Bft) 95,74 %
20.07.2017 09:26 19,9 C 20,6 C 20,0 C 99 % 15 lf 1007,4 hPa 0,0 l/m 0 min 0 min 181 W/m 12,6 km/h (3 Bft) 93,62 %
20.07.2017 09:28 19,9 C 20,6 C 20,0 C 99 % 15 lf 1007,5 hPa 0,0 l/m 0 min 0 min 194 W/m 10,5 km/h (2 Bft) 95,65 %
20.07.2017 09:30 19,9 C 21,1 C 20,0 C 99 % 15 lf 1007,4 hPa 0,0 l/m 0 min 0 min 229 W/m 8,4 km/h (2 Bft) 95,74 %
20.07.2017 09:32 20,0 C 21,7 C 20,6 C 99 % 14 lf 1007,5 hPa 0,0 l/m 2 min 0 min 265 W/m 8,4 km/h (2 Bft) 95,74 %
20.07.2017 09:34 20,1 C 21,7 C 20,6 C 99 % 13 lf 1007,5 hPa 0,0 l/m 2 min 0 min 269 W/m 8,4 km/h (2 Bft) 95,74 %
20.07.2017 09:36 20,1 C 21,7 C 21,1 C 99 % 10 lf 1007,5 hPa 0,0 l/m 2 min 0 min 294 W/m 12,6 km/h (3 Bft) 93,62 %
20.07.2017 09:38 20,2 C 21,7 C 21,1 C 99 % 7 lf 1007,5 hPa 0,0 l/m 2 min 0 min 322 W/m 12,6 km/h (3 Bft) 97,87 %
20.07.2017 09:40 20,2 C 23,3 C 21,7 C 99 % 4 lf 1007,5 hPa 0,0 l/m 2 min 0 min 369 W/m 8,4 km/h (2 Bft) 95,65 %
20.07.2017 09:42 20,3 C 22,8 C 22,2 C 99 % 3 lf 1007,5 hPa 0,0 l/m 2 min 0 min 347 W/m 8,4 km/h (2 Bft) 97,87 %
20.07.2017 09:44 20,4 C 22,8 C 22,2 C 99 % 2 lf 1007,5 hPa 0,0 l/m 2 min 0 min 348 W/m 10,5 km/h (2 Bft) 97,87 %
20.07.2017 09:46 20,4 C 22,2 C 21,7 C 99 % 1 lf 1007,5 hPa 0,0 l/m 2 min 0 min 341 W/m 14,6 km/h (3 Bft) 95,74 %
20.07.2017 09:48 20,5 C 22,2 C 21,7 C 99 % 1 lf 1007,5 hPa 0,0 l/m 0 min 0 min 278 W/m 8,4 km/h (2 Bft) 97,87 %
20.07.2017 09:50 20,6 C 22,2 C 21,7 C 99 % 0 lf 1007,5 hPa 0,0 l/m 0 min 0 min 253 W/m 14,6 km/h (3 Bft) 95,74 %
20.07.2017 09:52 20,6 C 21,7 C 21,1 C 99 % 0 lf 1007,6 hPa 0,0 l/m 0 min 0 min 233 W/m 14,6 km/h (3 Bft) 97,83 %
20.07.2017 09:54 20,6 C 22,2 C 21,7 C 99 % 0 lf 1007,5 hPa 0,0 l/m 0 min 0 min 223 W/m 10,5 km/h (2 Bft) 100,00 %
20.07.2017 09:56 20,7 C 22,2 C 21,1 C 99 % 0 lf 1007,6 hPa 0,0 l/m 0 min 0 min 212 W/m 12,6 km/h (3 Bft) 100,00 %
20.07.2017 09:58 20,7 C 22,2 C 21,1 C 99 % 0 lf 1007,6 hPa 0,0 l/m 0 min 0 min 222 W/m 10,5 km/h (2 Bft) 100,00 %
20.07.2017 10:00 20,7 C 22,2 C 21,1 C 99 % 0 lf 1007,6 hPa 0,0 l/m 0 min 0 min 246 W/m 12,6 km/h (3 Bft) 100,00 %
20.07.2017 10:02 20,8 C 23,3 C 21,7 C 99 % 0 lf 1007,6 hPa 0,0 l/m 0 min 0 min 262 W/m 14,6 km/h (3 Bft) 97,87 %
20.07.2017 10:04 20,8 C 23,3 C 21,7 C 99 % 0 lf 1007,6 hPa 0,0 l/m 0 min 0 min 276 W/m 12,6 km/h (3 Bft) 100,00 %
20.07.2017 10:06 20,8 C 23,9 C 22,8 C 99 % 0 lf 1007,6 hPa 0,0 l/m 2 min 0 min 360 W/m 16,7 km/h (3 Bft) 100,00 %
20.07.2017 10:08 20,9 C 23,9 C 23,3 C 99 % 0 lf 1007,6 hPa 0,0 l/m 2 min 0 min 362 W/m 12,6 km/h (3 Bft) 95,74 %
20.07.2017 10:10 21,0 C 25,0 C 23,9 C 99 % 0 lf 1007,6 hPa 0,0 l/m 2 min 0 min 486 W/m 12,6 km/h (3 Bft) 100,00 %
20.07.2017 10:12 21,1 C 26,1 C 24,4 C 99 % 0 lf 1007,6 hPa 0,0 l/m 2 min 0 min 665 W/m 14,6 km/h (3 Bft) 100,00 %
20.07.2017 10:14 21,2 C 26,7 C 25,0 C 99 % 0 lf 1007,6 hPa 0,0 l/m 2 min 0 min 657 W/m 8,4 km/h (2 Bft) 100,00 %
20.07.2017 10:16 21,3 C 26,7 C 24,4 C 99 % 0 lf 1007,6 hPa 0,0 l/m 2 min 0 min 657 W/m 10,5 km/h (2 Bft) 100,00 %
20.07.2017 10:18 21,4 C 28,3 C 25,0 C 99 % 0 lf 1007,6 hPa 0,0 l/m 2 min 0 min 438 W/m 12,6 km/h (3 Bft) 100,00 %
20.07.2017 10:20 21,6 C 27,8 C 24,4 C 99 % 0 lf 1007,5 hPa 0,0 l/m 2 min 0 min 628 W/m 10,5 km/h (2 Bft) 100,00 %
20.07.2017 10:22 21,6 C 26,1 C 23,3 C 99 % 0 lf 1007,5 hPa 0,0 l/m 2 min 0 min 450 W/m 14,6 km/h (3 Bft) 97,87 %
20.07.2017 10:24 21,6 C 24,4 C 22,8 C 99 % 0 lf 1007,5 hPa 0,0 l/m 0 min 0 min 200 W/m 20,9 km/h (4 Bft) 97,87 %
20.07.2017 10:26 21,6 C 24,4 C 22,8 C 99 % 0 lf 1007,5 hPa 0,0 l/m 0 min 0 min 271 W/m 14,6 km/h (3 Bft) 97,87 %
20.07.2017 10:28 21,6 C 25,0 C 23,3 C 99 % 0 lf 1007,5 hPa 0,0 l/m 2 min 0 min 364 W/m 8,4 km/h (2 Bft) 97,87 %
20.07.2017 10:30 21,6 C 26,1 C 24,4 C 98 % 0 lf 1007,5 hPa 0,0 l/m 2 min 0 min 386 W/m 10,5 km/h (2 Bft) 97,83 %
20.07.2017 10:32 21,7 C 25,0 C 23,9 C 98 % 0 lf 1007,5 hPa 0,0 l/m 2 min 0 min 379 W/m 18,8 km/h (3 Bft) 97,87 %
20.07.2017 10:34 21,6 C 24,4 C 23,3 C 98 % 0 lf 1007,6 hPa 0,0 l/m 0 min 0 min 200 W/m 16,7 km/h (3 Bft) 95,74 %
20.07.2017 10:36 21,6 C 23,3 C 22,8 C 98 % 0 lf 1007,6 hPa 0,0 l/m 0 min 0 min 141 W/m 16,7 km/h (3 Bft) 97,87 %
20.07.2017 10:38 21,6 C 23,3 C 22,2 C 97 % 0 lf 1007,6 hPa 0,0 l/m 0 min 0 min 185 W/m 20,9 km/h (4 Bft) 97,87 %
20.07.2017 10:40 21,7 C 23,3 C 22,2 C 97 % 0 lf 1007,7 hPa 0,0 l/m 0 min 0 min 231 W/m 18,8 km/h (3 Bft) 95,74 %
20.07.2017 10:42 21,7 C 23,3 C 22,8 C 96 % 0 lf 1007,6 hPa 0,0 l/m 0 min 0 min 228 W/m 20,9 km/h (4 Bft) 93,48 %
20.07.2017 10:44 21,7 C 23,3 C 22,8 C 96 % 0 lf 1007,6 hPa 0,0 l/m 0 min 0 min 238 W/m 18,8 km/h (3 Bft) 97,87 %
20.07.2017 10:46 21,7 C 23,3 C 22,8 C 95 % 0 lf 1007,7 hPa 0,0 l/m 0 min 0 min 222 W/m 16,7 km/h (3 Bft) 93,62 %
20.07.2017 10:48 21,8 C 23,9 C 22,8 C 95 % 0 lf 1007,7 hPa 0,0 l/m 0 min 0 min 185 W/m 12,6 km/h (3 Bft) 97,87 %
20.07.2017 10:50 21,8 C 25,0 C 23,3 C 95 % 0 lf 1007,8 hPa 0,0 l/m 0 min 0 min 262 W/m 10,5 km/h (2 Bft) 97,87 %
20.07.2017 10:52 21,9 C 26,7 C 24,4 C 95 % 0 lf 1007,7 hPa 0,0 l/m 2 min 0 min 430 W/m 10,5 km/h (2 Bft) 95,65 %
20.07.2017 10:54 22,0 C 26,1 C 24,4 C 95 % 0 lf 1007,8 hPa 0,0 l/m 2 min 0 min 456 W/m 16,7 km/h (3 Bft) 95,74 %
20.07.2017 10:56 22,1 C 26,1 C 24,4 C 94 % 0 lf 1007,8 hPa 0,0 l/m 0 min 0 min 304 W/m 14,6 km/h (3 Bft) 97,87 %
20.07.2017 10:58 22,1 C 26,1 C 24,4 C 94 % 0 lf 1007,8 hPa 0,0 l/m 0 min 0 min 308 W/m 14,6 km/h (3 Bft) 93,62 %
20.07.2017 11:00 22,2 C 25,0 C 23,9 C 94 % 0 lf 1007,8 hPa 0,0 l/m 0 min 0 min 265 W/m 14,6 km/h (3 Bft) 97,87 %
20.07.2017 11:02 22,2 C 25,0 C 23,9 C 93 % 0 lf 1007,9 hPa 0,0 l/m 0 min 0 min 226 W/m 8,4 km/h (2 Bft) 97,87 %
20.07.2017 11:04 22,3 C 24,4 C 23,3 C 93 % 0 lf 1007,9 hPa 0,0 l/m 0 min 0 min 175 W/m 20,9 km/h (4 Bft) 97,87 %
20.07.2017 11:06 22,3 C 23,9 C 23,3 C 92 % 0 lf 1007,9 hPa 0,0 l/m 0 min 0 min 234 W/m 20,9 km/h (4 Bft) 97,83 %
20.07.2017 11:08 22,3 C 23,9 C 23,3 C 91 % 0 lf 1007,9 hPa 0,0 l/m 0 min 0 min 279 W/m 18,8 km/h (3 Bft) 97,87 %
20.07.2017 11:10 22,3 C 26,1 C 25,0 C 90 % 0 lf 1007,9 hPa 0,0 l/m 2 min 0 min 414 W/m 14,6 km/h (3 Bft) 97,87 %
20.07.2017 11:12 22,4 C 27,8 C 26,1 C 90 % 0 lf 1007,9 hPa 0,0 l/m 2 min 0 min 676 W/m 14,6 km/h (3 Bft) 95,74 %
20.07.2017 11:14 22,5 C 26,7 C 26,1 C 90 % 0 lf 1007,8 hPa 0,0 l/m 2 min 0 min 504 W/m 23,0 km/h (4 Bft) 97,87 %
20.07.2017 11:16 22,6 C 27,2 C 26,1 C 89 % 0 lf 1007,9 hPa 0,0 l/m 2 min 0 min 392 W/m 12,6 km/h (3 Bft) 93,48 %
20.07.2017 11:18 22,7 C 26,1 C 25,6 C 89 % 0 lf 1007,9 hPa 0,0 l/m 0 min 0 min 328 W/m 16,7 km/h (3 Bft) 100,00 %
20.07.2017 11:20 22,7 C 26,7 C 25,0 C 88 % 0 lf 1007,9 hPa 0,0 l/m 0 min 0 min 308 W/m 14,6 km/h (3 Bft) 100,00 %
20.07.2017 11:22 22,8 C 25,6 C 25,0 C 87 % 0 lf 1007,9 hPa 0,0 l/m 2 min 0 min 375 W/m 23,0 km/h (4 Bft) 97,87 %
20.07.2017 11:24 22,8 C 25,6 C 24,4 C 86 % 0 lf 1007,8 hPa 0,0 l/m 0 min 0 min 361 W/m 23,0 km/h (4 Bft) 100,00 %
20.07.2017 11:26 22,9 C 25,0 C 24,4 C 86 % 0 lf 1007,8 hPa 0,0 l/m 0 min 0 min 328 W/m 20,9 km/h (4 Bft) 95,74 %
20.07.2017 11:28 22,9 C 25,0 C 24,4 C 86 % 0 lf 1007,8 hPa 0,0 l/m 0 min 0 min 324 W/m 18,8 km/h (3 Bft) 95,65 %
20.07.2017 11:30 22,9 C 25,0 C 23,9 C 85 % 0 lf 1007,8 hPa 0,0 l/m 0 min 0 min 303 W/m 18,8 km/h (3 Bft) 91,49 %
20.07.2017 11:32 22,9 C 24,4 C 23,3 C 85 % 0 lf 1007,8 hPa 0,0 l/m 0 min 0 min 289 W/m 23,0 km/h (4 Bft) 89,36 %
20.07.2017 11:34 22,9 C 25,0 C 23,9 C 85 % 0 lf 1007,7 hPa 0,0 l/m 0 min 0 min 338 W/m 25,1 km/h (4 Bft) 93,62 %
20.07.2017 11:36 22,9 C 24,4 C 23,9 C 85 % 0 lf 1007,8 hPa 0,0 l/m 0 min 0 min 288 W/m 16,7 km/h (3 Bft) 93,62 %
20.07.2017 11:38 22,9 C 25,0 C 23,9 C 85 % 0 lf 1007,8 hPa 0,0 l/m 0 min 0 min 299 W/m 14,6 km/h (3 Bft) 95,74 %
20.07.2017 11:40 22,9 C 25,0 C 24,4 C 85 % 0 lf 1007,6 hPa 0,0 l/m 0 min 0 min 360 W/m 14,6 km/h (3 Bft) 91,30 %
20.07.2017 11:42 23,0 C 25,0 C 23,9 C 85 % 1 lf 1007,6 hPa 0,0 l/m 0 min 0 min 337 W/m 16,7 km/h (3 Bft) 93,62 %
20.07.2017 11:44 23,0 C 25,0 C 24,4 C 85 % 0 lf 1007,7 hPa 0,0 l/m 0 min 0 min 316 W/m 23,0 km/h (4 Bft) 93,62 %
20.07.2017 11:46 23,1 C 25,6 C 24,4 C 85 % 0 lf 1007,6 hPa 0,0 l/m 0 min 0 min 313 W/m 23,0 km/h (4 Bft) 93,62 %
20.07.2017 11:48 23,1 C 26,1 C 25,0 C 86 % 0 lf 1007,6 hPa 0,0 l/m 2 min 0 min 450 W/m 20,9 km/h (4 Bft) 93,62 %
20.07.2017 11:50 23,2 C 26,7 C 25,6 C 85 % 0 lf 1007,6 hPa 0,0 l/m 2 min 0 min 436 W/m 18,8 km/h (3 Bft) 93,62 %
20.07.2017 11:52 23,2 C 26,7 C 25,6 C 85 % 0 lf 1007,6 hPa 0,0 l/m 2 min 0 min 435 W/m 16,7 km/h (3 Bft) 93,48 %
20.07.2017 11:54 23,2 C 26,1 C 25,6 C 84 % 0 lf 1007,5 hPa 0,0 l/m 0 min 0 min 375 W/m 23,0 km/h (4 Bft) 93,62 %
20.07.2017 11:56 23,3 C 26,1 C 25,0 C 85 % 0 lf 1007,5 hPa 0,0 l/m 0 min 0 min 295 W/m 20,9 km/h (4 Bft) 91,49 %
20.07.2017 11:58 23,3 C 25,6 C 24,4 C 84 % 0 lf 1007,5 hPa 0,0 l/m 0 min 0 min 237 W/m 16,7 km/h (3 Bft) 93,62 %
20.07.2017 12:00 23,3 C 25,0 C 23,9 C 84 % 0 lf 1007,5 hPa 0,0 l/m 0 min 0 min 202 W/m 16,7 km/h (3 Bft) 95,74 %
20.07.2017 12:03 23,3 C 25,6 C 23,9 C 84 % 0 lf 1007,5 hPa 0,0 l/m 0 min 0 min 258 W/m 10,5 km/h (2 Bft) 95,71 %
20.07.2017 12:04 23,3 C 25,6 C 24,4 C 84 % 0 lf 1007,5 hPa 0,0 l/m 0 min 0 min 292 W/m 10,5 km/h (2 Bft) 95,65 %
20.07.2017 12:06 23,3 C 25,6 C 24,4 C 83 % 0 lf 1007,5 hPa 0,0 l/m 0 min 0 min 331 W/m 10,5 km/h (2 Bft) 93,62 %
20.07.2017 12:10 23,4 C 25,6 C 25,0 C 83 % 0 lf 1007,6 hPa 0,0 l/m 0 min 0 min 322 W/m 14,6 km/h (3 Bft) 95,10 %
20.07.2017 12:12 23,4 C 26,7 C 25,0 C 83 % 0 lf 1007,6 hPa 0,0 l/m 0 min 0 min 324 W/m 14,6 km/h (3 Bft) 95,65 %
20.07.2017 12:14 23,4 C 27,2 C 26,1 C 84 % 0 lf 1007,6 hPa 0,0 l/m 0 min 0 min 330 W/m 16,7 km/h (3 Bft) 97,87 %
20.07.2017 12:16 23,5 C 27,2 C 25,6 C 84 % 0 lf 1007,6 hPa 0,0 l/m 0 min 0 min 351 W/m 12,6 km/h (3 Bft) 97,87 %
20.07.2017 12:18 23,5 C 26,1 C 25,6 C 83 % 0 lf 1007,6 hPa 0,0 l/m 0 min 0 min 323 W/m 18,8 km/h (3 Bft) 95,74 %
20.07.2017 12:20 23,6 C 26,7 C 25,0 C 83 % 0 lf 1007,6 hPa 0,0 l/m 0 min 0 min 349 W/m 12,6 km/h (3 Bft) 100,00 %
20.07.2017 12:22 23,6 C 26,7 C 25,6 C 83 % 0 lf 1007,6 hPa 0,0 l/m 0 min 0 min 386 W/m 14,6 km/h (3 Bft) 97,87 %
20.07.2017 12:24 23,7 C 26,7 C 25,6 C 83 % 0 lf 1007,5 hPa 0,0 l/m 0 min 0 min 396 W/m 12,6 km/h (3 Bft) 95,65 %
20.07.2017 12:26 23,7 C 28,3 C 27,2 C 83 % 0 lf 1007,6 hPa 0,0 l/m 2 min 0 min 445 W/m 18,8 km/h (3 Bft) 100,00 %
20.07.2017 12:28 23,8 C 28,3 C 26,7 C 83 % 0 lf 1007,5 hPa 0,0 l/m 2 min 0 min 445 W/m 10,5 km/h (2 Bft) 100,00 %
20.07.2017 12:30 23,9 C 27,8 C 26,1 C 83 % 0 lf 1007,6 hPa 0,0 l/m 0 min 0 min 299 W/m 12,6 km/h (3 Bft) 100,00 %
20.07.2017 12:32 23,9 C 26,7 C 26,1 C 82 % 0 lf 1007,5 hPa 0,0 l/m 0 min 0 min 259 W/m 14,6 km/h (3 Bft) 100,00 %
20.07.2017 12:34 23,9 C 26,1 C 25,0 C 81 % 0 lf 1007,6 hPa 0,0 l/m 0 min 0 min 216 W/m 18,8 km/h (3 Bft) 93,62 %
20.07.2017 12:36 23,9 C 25,0 C 24,4 C 80 % 0 lf 1007,6 hPa 0,0 l/m 0 min 0 min 170 W/m 16,7 km/h (3 Bft) 95,65 %
20.07.2017 12:38 23,9 C 25,0 C 23,9 C 80 % 3 lf 1007,5 hPa 0,0 l/m 0 min 0 min 164 W/m 16,7 km/h (3 Bft) 100,00 %
20.07.2017 12:40 23,9 C 24,4 C 22,8 C 80 % 4 lf 1007,5 hPa 0,0 l/m 0 min 0 min 188 W/m 18,8 km/h (3 Bft) 100,00 %
20.07.2017 12:42 23,8 C 25,6 C 23,3 C 80 % 0 lf 1007,5 hPa 0,0 l/m 0 min 0 min 254 W/m 25,1 km/h (4 Bft) 100,00 %
20.07.2017 12:44 23,9 C 26,7 C 24,4 C 80 % 0 lf 1007,5 hPa 0,0 l/m 0 min 0 min 343 W/m 18,8 km/h (3 Bft) 100,00 %
20.07.2017 12:46 23,9 C 27,2 C 25,0 C 80 % 0 lf 1007,5 hPa 0,0 l/m 2 min 0 min 420 W/m 16,7 km/h (3 Bft) 100,00 %
20.07.2017 12:48 23,9 C 27,2 C 25,6 C 80 % 0 lf 1007,5 hPa 0,0 l/m 0 min 0 min 388 W/m 16,7 km/h (3 Bft) 100,00 %
20.07.2017 12:50 23,9 C 26,7 C 25,0 C 80 % 0 lf 1007,5 hPa 0,0 l/m 0 min 0 min 245 W/m 16,7 km/h (3 Bft) 100,00 %
20.07.2017 12:52 24,0 C 26,1 C 24,4 C 79 % 0 lf 1007,5 hPa 0,0 l/m 0 min 0 min 172 W/m 25,1 km/h (4 Bft) 100,00 %
20.07.2017 12:54 24,0 C 25,0 C 23,9 C 79 % 0 lf 1007,5 hPa 0,0 l/m 0 min 0 min 147 W/m 18,8 km/h (3 Bft) 100,00 %
20.07.2017 12:56 23,9 C 25,0 C 23,3 C 79 % 0 lf 1007,6 hPa 0,0 l/m 0 min 0 min 168 W/m 23,0 km/h (4 Bft) 97,87 %
20.07.2017 12:58 23,9 C 26,1 C 23,9 C 79 % 0 lf 1007,5 hPa 0,0 l/m 0 min 0 min 258 W/m 18,8 km/h (3 Bft) 100,00 %
20.07.2017 13:00 23,9 C 27,2 C 25,0 C 80 % 0 lf 1007,5 hPa 0,0 l/m 2 min 0 min 879 W/m 18,8 km/h (3 Bft) 100,00 %
20.07.2017 13:02 23,9 C 27,8 C 25,0 C 79 % 0 lf 1007,5 hPa 0,0 l/m 2 min 0 min 1014 W/m 23,0 km/h (4 Bft) 100,00 %
20.07.2017 13:04 23,9 C 29,4 C 26,1 C 79 % 0 lf 1007,6 hPa 0,0 l/m 2 min 0 min 1014 W/m 27,2 km/h (4 Bft) 100,00 %
20.07.2017 13:06 24,0 C 30,0 C 27,2 C 79 % 0 lf 1007,6 hPa 0,0 l/m 2 min 0 min 1014 W/m 29,3 km/h (5 Bft) 100,00 %
20.07.2017 13:08 24,2 C 31,1 C 27,8 C 80 % 0 lf 1007,7 hPa 0,0 l/m 2 min 0 min 1004 W/m 18,8 km/h (3 Bft) 100,00 %
20.07.2017 13:10 24,3 C 32,8 C 28,3 C 80 % 0 lf 1007,7 hPa 0,0 l/m 2 min 0 min 939 W/m 18,8 km/h (3 Bft) 100,00 %
20.07.2017 13:12 24,4 C 31,7 C 27,8 C 78 % 0 lf 1007,7 hPa 0,0 l/m 2 min 0 min 911 W/m 25,1 km/h (4 Bft) 100,00 %
20.07.2017 13:14 24,6 C 32,8 C 27,2 C 78 % 0 lf 1007,6 hPa 0,0 l/m 2 min 0 min 918 W/m 25,1 km/h (4 Bft) 100,00 %
20.07.2017 13:16 24,7 C 32,8 C 27,2 C 78 % 0 lf 1007,6 hPa 0,0 l/m 2 min 0 min 922 W/m 18,8 km/h (3 Bft) 100,00 %
20.07.2017 13:18 24,9 C 33,3 C 26,7 C 77 % 0 lf 1007,6 hPa 0,0 l/m 2 min 0 min 920 W/m 25,1 km/h (4 Bft) 97,87 %
20.07.2017 13:20 25,0 C 32,8 C 26,7 C 76 % 0 lf 1007,6 hPa 0,0 l/m 2 min 0 min 952 W/m 18,8 km/h (3 Bft) 97,87 %
20.07.2017 13:22 25,1 C 31,7 C 26,7 C 74 % 0 lf 1007,6 hPa 0,0 l/m 2 min 0 min 1007 W/m 27,2 km/h (4 Bft) 97,87 %
20.07.2017 13:24 25,1 C 30,0 C 26,1 C 73 % 0 lf 1007,6 hPa 0,0 l/m 0 min 0 min 400 W/m 20,9 km/h (4 Bft) 97,83 %
20.07.2017 13:26 25,1 C 28,3 C 26,1 C 72 % 0 lf 1007,6 hPa 0,0 l/m 0 min 0 min 376 W/m 29,3 km/h (5 Bft) 100,00 %
20.07.2017 13:28 25,1 C 27,2 C 25,6 C 71 % 0 lf 1007,6 hPa 0,0 l/m 0 min 0 min 324 W/m 18,8 km/h (3 Bft) 97,87 %
20.07.2017 13:30 25,1 C 26,7 C 25,6 C 71 % 0 lf 1007,5 hPa 0,0 l/m 0 min 0 min 265 W/m 25,1 km/h (4 Bft) 93,62 %
20.07.2017 13:32 24,9 C 26,1 C 25,0 C 71 % 0 lf 1007,5 hPa 0,0 l/m 0 min 0 min 275 W/m 18,8 km/h (3 Bft) 97,87 %
20.07.2017 13:34 24,8 C 26,1 C 24,4 C 71 % 0 lf 1007,6 hPa 0,0 l/m 0 min 0 min 293 W/m 27,2 km/h (4 Bft) 97,83 %
20.07.2017 13:36 24,7 C 26,1 C 25,0 C 71 % 0 lf 1007,5 hPa 0,0 l/m 0 min 0 min 314 W/m 20,9 km/h (4 Bft) 95,74 %
20.07.2017 13:38 24,7 C 25,6 C 25,0 C 71 % 0 lf 1007,5 hPa 0,0 l/m 0 min 0 min 286 W/m 25,1 km/h (4 Bft) 95,74 %
20.07.2017 13:40 24,6 C 25,0 C 24,4 C 71 % 0 lf 1007,5 hPa 0,0 l/m 0 min 0 min 253 W/m 33,5 km/h (5 Bft) 93,62 %
20.07.2017 13:42 24,4 C 25,0 C 24,4 C 71 % 0 lf 1007,5 hPa 0,0 l/m 0 min 0 min 275 W/m 20,9 km/h (4 Bft) 95,74 %
20.07.2017 13:44 24,3 C 25,6 C 24,4 C 71 % 0 lf 1007,5 hPa 0,0 l/m 0 min 0 min 283 W/m 20,9 km/h (4 Bft) 95,74 %
20.07.2017 13:46 24,3 C 27,2 C 25,0 C 72 % 0 lf 1007,5 hPa 0,0 l/m 0 min 0 min 317 W/m 20,9 km/h (4 Bft) 95,65 %
20.07.2017 13:48 24,3 C 28,9 C 25,6 C 73 % 0 lf 1007,5 hPa 0,0 l/m 0 min 0 min 323 W/m 14,6 km/h (3 Bft) 93,62 %
20.07.2017 13:50 24,4 C 30,0 C 25,6 C 73 % 0 lf 1007,5 hPa 0,0 l/m 2 min 0 min 450 W/m 18,8 km/h (3 Bft) 95,74 %
20.07.2017 13:52 24,5 C 31,1 C 25,6 C 72 % 0 lf 1007,4 hPa 0,0 l/m 2 min 0 min 921 W/m 20,9 km/h (4 Bft) 93,62 %
20.07.2017 13:54 24,7 C 31,7 C 25,6 C 72 % 0 lf 1007,5 hPa 0,0 l/m 2 min 0 min 920 W/m 18,8 km/h (3 Bft) 95,74 %
20.07.2017 13:56 24,8 C 31,1 C 25,6 C 71 % 0 lf 1007,5 hPa 0,0 l/m 2 min 0 min 913 W/m 23,0 km/h (4 Bft) 95,74 %
20.07.2017 13:58 24,9 C 29,4 C 25,6 C 70 % 0 lf 1007,5 hPa 0,0 l/m 0 min 0 min 343 W/m 16,7 km/h (3 Bft) 93,48 %
20.07.2017 14:00 24,9 C 27,8 C 25,0 C 69 % 0 lf 1007,5 hPa 0,0 l/m 0 min 0 min 200 W/m 18,8 km/h (3 Bft) 95,74 %
20.07.2017 14:02 24,9 C 27,2 C 25,0 C 70 % 0 lf 1007,5 hPa 0,0 l/m 0 min 0 min 227 W/m 14,6 km/h (3 Bft) 93,62 %
20.07.2017 14:04 25,0 C 26,7 C 25,0 C 71 % 0 lf 1007,5 hPa 0,0 l/m 0 min 0 min 226 W/m 12,6 km/h (3 Bft) 95,74 %
20.07.2017 14:06 24,9 C 26,1 C 25,0 C 70 % 0 lf 1007,5 hPa 0,0 l/m 0 min 0 min 251 W/m 14,6 km/h (3 Bft) 89,36 %
20.07.2017 14:08 24,9 C 26,7 C 25,6 C 70 % 0 lf 1007,5 hPa 0,0 l/m 0 min 0 min 290 W/m 12,6 km/h (3 Bft) 95,74 %
20.07.2017 14:10 25,0 C 27,8 C 26,7 C 71 % 0 lf 1007,5 hPa 0,0 l/m 0 min 0 min 345 W/m 10,5 km/h (2 Bft) 95,65 %
20.07.2017 14:12 25,1 C 30,0 C 28,9 C 71 % 0 lf 1007,5 hPa 0,0 l/m 2 min 0 min 1123 W/m 6,3 km/h (2 Bft) 93,62 %
20.07.2017 14:14 25,1 C 28,9 C 28,3 C 71 % 0 lf 1007,3 hPa 0,0 l/m 2 min 0 min 636 W/m 10,5 km/h (2 Bft) 95,74 %
20.07.2017 14:16 25,1 C 29,4 C 28,9 C 71 % 0 lf 1007,4 hPa 0,0 l/m 0 min 0 min 362 W/m 14,6 km/h (3 Bft) 95,74 %
20.07.2017 14:18 25,2 C 28,9 C 28,3 C 68 % 0 lf 1007,3 hPa 0,0 l/m 0 min 0 min 371 W/m 29,3 km/h (5 Bft) 95,74 %
20.07.2017 14:20 25,3 C 30,0 C 28,9 C 67 % 0 lf 1007,3 hPa 0,0 l/m 2 min 0 min 494 W/m 25,1 km/h (4 Bft) 97,87 %
20.07.2017 14:22 25,3 C 28,9 C 28,9 C 67 % 0 lf 1007,5 hPa 0,0 l/m 2 min 0 min 494 W/m 27,2 km/h (4 Bft) 93,48 %
20.07.2017 14:24 25,4 C 31,1 C 31,1 C 65 % 0 lf 1007,4 hPa 0,0 l/m 2 min 0 min 858 W/m 35,6 km/h (5 Bft) 93,62 %
20.07.2017 14:26 25,6 C 31,7 C 32,2 C 62 % 0 lf 1007,3 hPa 0,0 l/m 2 min 0 min 1089 W/m 41,8 km/h (6 Bft) 95,74 %
20.07.2017 14:28 25,7 C 30,0 C 30,0 C 62 % 0 lf 1007,4 hPa 0,0 l/m 2 min 0 min 1062 W/m 31,4 km/h (5 Bft) 93,62 %
20.07.2017 14:30 25,8 C 31,1 C 31,1 C 62 % 0 lf 1007,4 hPa 0,0 l/m 2 min 0 min 1064 W/m 23,0 km/h (4 Bft) 91,49 %
20.07.2017 14:32 25,9 C 29,4 C 30,0 C 60 % 0 lf 1007,5 hPa 0,0 l/m 2 min 0 min 879 W/m 31,4 km/h (5 Bft) 95,74 %
20.07.2017 14:34 25,9 C 27,8 C 27,8 C 59 % 0 lf 1007,4 hPa 0,0 l/m 0 min 0 min 268 W/m 35,6 km/h (5 Bft) 95,65 %
20.07.2017 14:36 25,8 C 27,2 C 26,7 C 60 % 0 lf 1007,5 hPa 0,0 l/m 0 min 0 min 234 W/m 25,1 km/h (4 Bft) 97,87 %
20.07.2017 14:38 25,8 C 27,8 C 27,2 C 60 % 0 lf 1007,5 hPa 0,0 l/m 0 min 0 min 237 W/m 27,2 km/h (4 Bft) 97,87 %
20.07.2017 14:40 25,8 C 28,3 C 28,3 C 59 % 0 lf 1007,4 hPa 0,0 l/m 2 min 0 min 974 W/m 35,6 km/h (5 Bft) 93,62 %
20.07.2017 14:42 25,7 C 27,2 C 27,2 C 58 % 0 lf 1007,5 hPa 0,0 l/m 0 min 0 min 320 W/m 39,7 km/h (6 Bft) 95,74 %
20.07.2017 14:44 25,7 C 27,2 C 26,7 C 58 % 0 lf 1007,6 hPa 0,0 l/m 0 min 0 min 300 W/m 35,6 km/h (5 Bft) 95,74 %
20.07.2017 14:46 25,6 C 27,8 C 27,8 C 60 % 0 lf 1007,5 hPa 0,0 l/m 0 min 0 min 361 W/m 23,0 km/h (4 Bft) 95,65 %
20.07.2017 14:48 25,7 C 29,4 C 29,4 C 61 % 0 lf 1007,6 hPa 0,0 l/m 0 min 0 min 369 W/m 20,9 km/h (4 Bft) 97,87 %
20.07.2017 14:50 25,8 C 31,1 C 32,2 C 63 % 0 lf 1007,6 hPa 0,0 l/m 2 min 0 min 576 W/m 18,8 km/h (3 Bft) 95,74 %
20.07.2017 14:52 25,9 C 30,6 C 31,1 C 61 % 0 lf 1007,5 hPa 0,0 l/m 2 min 0 min 1001 W/m 23,0 km/h (4 Bft) 100,00 %
20.07.2017 14:54 25,9 C 28,3 C 28,9 C 58 % 0 lf 1007,4 hPa 0,0 l/m 0 min 0 min 216 W/m 29,3 km/h (5 Bft) 95,74 %
20.07.2017 14:56 25,9 C 28,3 C 27,8 C 60 % 0 lf 1007,5 hPa 0,0 l/m 0 min 0 min 273 W/m 27,2 km/h (4 Bft) 95,74 %
20.07.2017 14:58 25,9 C 28,9 C 28,9 C 59 % 0 lf 1007,5 hPa 0,0 l/m 0 min 0 min 313 W/m 33,5 km/h (5 Bft) 95,74 %
20.07.2017 15:00 25,9 C 28,9 C 28,9 C 60 % 0 lf 1007,5 hPa 0,0 l/m 0 min 0 min 293 W/m 29,3 km/h (5 Bft) 95,65 %
20.07.2017 15:02 25,9 C 27,8 C 27,8 C 58 % 0 lf 1007,7 hPa 0,0 l/m 0 min 0 min 284 W/m 27,2 km/h (4 Bft) 97,87 %
20.07.2017 15:04 25,9 C 28,9 C 30,0 C 58 % 0 lf 1007,6 hPa 0,0 l/m 2 min 0 min 650 W/m 31,4 km/h (5 Bft) 97,87 %
20.07.2017 15:06 25,9 C 29,4 C 31,1 C 58 % 0 lf 1007,6 hPa 0,0 l/m 2 min 0 min 1041 W/m 27,2 km/h (4 Bft) 97,87 %
20.07.2017 15:08 25,9 C 28,9 C 29,4 C 60 % 0 lf 1007,5 hPa 0,0 l/m 2 min 0 min 475 W/m 23,0 km/h (4 Bft) 97,87 %
20.07.2017 15:10 26,0 C 29,4 C 31,1 C 59 % 0 lf 1007,6 hPa 0,0 l/m 0 min 0 min 345 W/m 39,7 km/h (6 Bft) 97,83 %
20.07.2017 15:12 26,0 C 29,4 C 31,1 C 57 % 0 lf 1007,6 hPa 0,0 l/m 2 min 0 min 1020 W/m 41,8 km/h (6 Bft) 89,36 %
20.07.2017 15:14 26,1 C 30,6 C 32,8 C 58 % 0 lf 1007,5 hPa 0,0 l/m 2 min 0 min 1022 W/m 31,4 km/h (5 Bft) 97,87 %
20.07.2017 15:16 26,2 C 30,6 C 32,8 C 58 % 0 lf 1007,6 hPa 0,0 l/m 2 min 0 min 1007 W/m 18,8 km/h (3 Bft) 93,62 %
20.07.2017 15:18 26,2 C 30,6 C 32,2 C 59 % 0 lf 1007,7 hPa 0,0 l/m 2 min 0 min 769 W/m 31,4 km/h (5 Bft) 97,87 %
20.07.2017 15:20 26,3 C 29,4 C 31,1 C 57 % 0 lf 1007,6 hPa 0,0 l/m 2 min 0 min 537 W/m 43,9 km/h (6 Bft) 95,74 %
20.07.2017 15:22 26,3 C 28,9 C 30,0 C 57 % 0 lf 1007,8 hPa 0,0 l/m 2 min 0 min 521 W/m 35,6 km/h (5 Bft) 93,48 %
20.07.2017 15:24 26,2 C 27,8 C 28,3 C 57 % 0 lf 1007,7 hPa 0,0 l/m 2 min 0 min 431 W/m 41,8 km/h (6 Bft) 97,87 %
20.07.2017 15:26 26,1 C 27,2 C 27,2 C 58 % 0 lf 1007,7 hPa 0,0 l/m 0 min 0 min 337 W/m 35,6 km/h (5 Bft) 97,87 %
20.07.2017 15:28 26,0 C 27,2 C 26,7 C 59 % 0 lf 1007,7 hPa 0,0 l/m 0 min 0 min 343 W/m 29,3 km/h (5 Bft) 97,87 %
20.07.2017 15:30 25,9 C 27,2 C 26,7 C 58 % 0 lf 1007,7 hPa 0,0 l/m 2 min 0 min 401 W/m 35,6 km/h (5 Bft) 97,87 %
20.07.2017 15:32 25,8 C 27,2 C 26,7 C 59 % 0 lf 1007,7 hPa 0,0 l/m 2 min 0 min 399 W/m 23,0 km/h (4 Bft) 95,74 %
20.07.2017 15:34 25,7 C 27,2 C 26,7 C 59 % 0 lf 1007,7 hPa 0,0 l/m 2 min 0 min 394 W/m 29,3 km/h (5 Bft) 93,48 %
20.07.2017 15:36 25,7 C 27,2 C 26,7 C 59 % 0 lf 1007,7 hPa 0,0 l/m 2 min 0 min 433 W/m 27,2 km/h (4 Bft) 97,87 %
20.07.2017 15:38 25,6 C 28,3 C 28,3 C 61 % 0 lf 1007,7 hPa 0,0 l/m 2 min 0 min 462 W/m 29,3 km/h (5 Bft) 97,87 %
20.07.2017 15:40 25,7 C 29,4 C 31,1 C 60 % 0 lf 1007,6 hPa 0,0 l/m 2 min 0 min 1021 W/m 33,5 km/h (5 Bft) 95,74 %
20.07.2017 15:42 25,7 C 30,0 C 32,2 C 59 % 0 lf 1007,7 hPa 0,0 l/m 2 min 0 min 933 W/m 37,7 km/h (5 Bft) 95,74 %
20.07.2017 15:44 25,8 C 30,6 C 32,8 C 58 % 0 lf 1007,6 hPa 0,0 l/m 2 min 0 min 903 W/m 35,6 km/h (5 Bft) 97,87 %
20.07.2017 15:46 25,9 C 30,6 C 32,8 C 59 % 0 lf 1007,6 hPa 0,0 l/m 2 min 0 min 939 W/m 27,2 km/h (4 Bft) 97,83 %
20.07.2017 15:48 26,0 C 28,9 C 30,0 C 58 % 0 lf 1007,6 hPa 0,0 l/m 2 min 0 min 492 W/m 25,1 km/h (4 Bft) 97,87 %
20.07.2017 15:50 25,9 C 28,3 C 28,9 C 59 % 0 lf 1007,6 hPa 0,0 l/m 0 min 0 min 362 W/m 31,4 km/h (5 Bft) 95,74 %
20.07.2017 15:52 25,9 C 28,3 C 28,9 C 59 % 0 lf 1007,6 hPa 0,0 l/m 2 min 0 min 383 W/m 23,0 km/h (4 Bft) 95,74 %
20.07.2017 15:54 25,9 C 28,9 C 29,4 C 59 % 0 lf 1007,6 hPa 0,0 l/m 0 min 0 min 362 W/m 23,0 km/h (4 Bft) 97,87 %
20.07.2017 15:56 26,0 C 29,4 C 32,2 C 59 % 0 lf 1007,6 hPa 0,0 l/m 2 min 0 min 557 W/m 23,0 km/h (4 Bft) 97,87 %
20.07.2017 15:58 26,0 C 29,4 C 32,8 C 59 % 0 lf 1007,7 hPa 0,0 l/m 2 min 0 min 837 W/m 23,0 km/h (4 Bft) 97,83 %
20.07.2017 16:00 26,1 C 28,9 C 32,8 C 59 % 0 lf 1007,6 hPa 0,0 l/m 2 min 0 min 837 W/m 23,0 km/h (4 Bft) 97,87 %
20.07.2017 16:02 26,2 C 30,0 C 33,3 C 60 % 0 lf 1007,6 hPa 0,0 l/m 2 min 0 min 820 W/m 25,1 km/h (4 Bft) 95,74 %
20.07.2017 16:04 26,2 C 30,0 C 33,9 C 59 % 0 lf 1007,6 hPa 0,0 l/m 2 min 0 min 803 W/m 31,4 km/h (5 Bft) 97,87 %
20.07.2017 16:06 26,3 C 29,4 C 33,3 C 58 % 0 lf 1007,6 hPa 0,0 l/m 2 min 0 min 780 W/m 29,3 km/h (5 Bft) 97,87 %
20.07.2017 16:08 26,4 C 30,0 C 34,4 C 60 % 0 lf 1007,5 hPa 0,0 l/m 2 min 0 min 780 W/m 18,8 km/h (3 Bft) 100,00 %
20.07.2017 16:10 26,4 C 28,3 C 32,2 C 57 % 0 lf 1007,5 hPa 0,0 l/m 2 min 0 min 784 W/m 31,4 km/h (5 Bft) 100,00 %
20.07.2017 16:12 26,4 C 28,9 C 33,3 C 57 % 0 lf 1007,6 hPa 0,0 l/m 2 min 0 min 765 W/m 25,1 km/h (4 Bft) 100,00 %
20.07.2017 16:14 26,4 C 28,3 C 33,3 C 57 % 0 lf 1007,5 hPa 0,0 l/m 2 min 0 min 743 W/m 25,1 km/h (4 Bft) 100,00 %
20.07.2017 16:16 26,5 C 29,4 C 33,3 C 58 % 0 lf 1007,5 hPa 0,0 l/m 2 min 0 min 723 W/m 25,1 km/h (4 Bft) 100,00 %
20.07.2017 16:18 26,6 C 28,9 C 33,9 C 58 % 0 lf 1007,6 hPa 0,0 l/m 2 min 0 min 688 W/m 35,6 km/h (5 Bft) 97,87 %
20.07.2017 16:20 26,6 C 28,9 C 33,9 C 59 % 0 lf 1007,7 hPa 0,0 l/m 2 min 0 min 697 W/m 29,3 km/h (5 Bft) 97,87 %
20.07.2017 16:22 26,7 C 28,9 C 33,9 C 58 % 0 lf 1007,6 hPa 0,0 l/m 2 min 0 min 724 W/m 27,2 km/h (4 Bft) 100,00 %
20.07.2017 16:24 26,7 C 28,9 C 34,4 C 60 % 0 lf 1007,6 hPa 0,0 l/m 2 min 0 min 730 W/m 20,9 km/h (4 Bft) 100,00 %
20.07.2017 16:26 26,8 C 28,9 C 34,4 C 58 % 0 lf 1007,7 hPa 0,0 l/m 2 min 0 min 735 W/m 23,0 km/h (4 Bft) 100,00 %
20.07.2017 16:28 26,8 C 28,3 C 33,3 C 57 % 0 lf 1007,5 hPa 0,0 l/m 2 min 0 min 729 W/m 23,0 km/h (4 Bft) 100,00 %
20.07.2017 16:30 26,9 C 28,3 C 32,2 C 57 % 0 lf 1007,6 hPa 0,0 l/m 2 min 0 min 729 W/m 23,0 km/h (4 Bft) 100,00 %
20.07.2017 16:32 26,9 C 28,3 C 31,1 C 58 % 0 lf 1007,6 hPa 0,0 l/m 2 min 0 min 491 W/m 27,2 km/h (4 Bft) 100,00 %
20.07.2017 16:34 26,8 C 27,2 C 28,9 C 58 % 0 lf 1007,6 hPa 0,0 l/m 0 min 0 min 236 W/m 29,3 km/h (5 Bft) 100,00 %
20.07.2017 16:36 26,8 C 27,2 C 30,0 C 57 % 0 lf 1007,6 hPa 0,0 l/m 0 min 0 min 250 W/m 27,2 km/h (4 Bft) 97,87 %
20.07.2017 16:38 26,7 C 27,2 C 32,2 C 57 % 0 lf 1007,6 hPa 0,0 l/m 2 min 0 min 732 W/m 29,3 km/h (5 Bft) 91,49 %
20.07.2017 16:40 26,7 C 27,8 C 33,3 C 58 % 0 lf 1007,6 hPa 0,0 l/m 2 min 0 min 736 W/m 23,0 km/h (4 Bft) 97,87 %
20.07.2017 16:42 26,8 C 27,2 C 32,2 C 57 % 0 lf 1007,6 hPa 0,0 l/m 2 min 0 min 728 W/m 27,2 km/h (4 Bft) 97,87 %
20.07.2017 16:44 26,8 C 27,2 C 30,6 C 58 % 0 lf 1007,6 hPa 0,0 l/m 2 min 0 min 679 W/m 18,8 km/h (3 Bft) 95,65 %
20.07.2017 16:46 26,8 C 27,2 C 30,6 C 59 % 0 lf 1007,6 hPa 0,0 l/m 0 min 0 min 230 W/m 23,0 km/h (4 Bft) 97,87 %
20.07.2017 16:48 26,8 C 26,7 C 28,9 C 59 % 0 lf 1007,6 hPa 0,0 l/m 0 min 0 min 202 W/m 18,8 km/h (3 Bft) 97,87 %
20.07.2017 16:50 26,7 C 26,7 C 27,8 C 58 % 0 lf 1007,6 hPa 0,0 l/m 0 min 0 min 194 W/m 16,7 km/h (3 Bft) 97,87 %
20.07.2017 16:52 26,7 C 26,7 C 27,2 C 59 % 0 lf 1007,6 hPa 0,0 l/m 0 min 0 min 201 W/m 14,6 km/h (3 Bft) 95,74 %
20.07.2017 16:54 26,6 C 26,7 C 26,7 C 59 % 0 lf 1007,6 hPa 0,0 l/m 0 min 0 min 195 W/m 18,8 km/h (3 Bft) 95,74 %
20.07.2017 16:56 26,5 C 26,7 C 26,1 C 59 % 0 lf 1007,6 hPa 0,0 l/m 0 min 0 min 212 W/m 20,9 km/h (4 Bft) 95,65 %
20.07.2017 16:58 26,4 C 26,1 C 26,1 C 58 % 0 lf 1007,5 hPa 0,0 l/m 0 min 0 min 210 W/m 18,8 km/h (3 Bft) 95,74 %
20.07.2017 17:00 26,3 C 26,1 C 26,1 C 58 % 0 lf 1007,6 hPa 0,0 l/m 0 min 0 min 187 W/m 20,9 km/h (4 Bft) 95,74 %
20.07.2017 17:02 26,3 C 26,1 C 25,6 C 59 % 0 lf 1007,6 hPa 0,0 l/m 0 min 0 min 165 W/m 16,7 km/h (3 Bft) 95,74 %
20.07.2017 17:04 26,2 C 26,1 C 25,6 C 59 % 0 lf 1007,6 hPa 0,0 l/m 0 min 0 min 144 W/m 20,9 km/h (4 Bft) 95,74 %
20.07.2017 17:06 26,1 C 25,6 C 25,0 C 59 % 0 lf 1007,6 hPa 0,0 l/m 0 min 0 min 110 W/m 23,0 km/h (4 Bft) 95,74 %
20.07.2017 17:08 26,0 C 25,6 C 25,0 C 60 % 0 lf 1007,6 hPa 0,0 l/m 0 min 0 min 86 W/m 14,6 km/h (3 Bft) 95,65 %
20.07.2017 17:10 25,9 C 25,6 C 24,4 C 59 % 0 lf 1007,6 hPa 0,0 l/m 0 min 0 min 78 W/m 20,9 km/h (4 Bft) 93,62 %
20.07.2017 17:12 25,8 C 25,0 C 24,4 C 60 % 0 lf 1007,7 hPa 0,0 l/m 0 min 0 min 83 W/m 14,6 km/h (3 Bft) 95,74 %
20.07.2017 17:14 25,8 C 25,0 C 24,4 C 60 % 0 lf 1007,7 hPa 0,0 l/m 0 min 0 min 92 W/m 16,7 km/h (3 Bft) 93,62 %
20.07.2017 17:16 25,7 C 25,0 C 24,4 C 60 % 0 lf 1007,7 hPa 0,0 l/m 0 min 0 min 113 W/m 16,7 km/h (3 Bft) 95,74 %
20.07.2017 17:18 25,6 C 25,6 C 24,4 C 60 % 0 lf 1007,6 hPa 0,0 l/m 0 min 0 min 160 W/m 12,6 km/h (3 Bft) 95,74 %
20.07.2017 17:20 25,6 C 25,6 C 25,0 C 59 % 0 lf 1007,7 hPa 0,0 l/m 0 min 0 min 237 W/m 20,9 km/h (4 Bft) 95,65 %
20.07.2017 17:22 25,6 C 26,1 C 25,6 C 60 % 0 lf 1007,6 hPa 0,0 l/m 2 min 0 min 295 W/m 27,2 km/h (4 Bft) 95,74 %
20.07.2017 17:24 25,5 C 26,1 C 25,6 C 60 % 0 lf 1007,7 hPa 0,0 l/m 0 min 0 min 281 W/m 20,9 km/h (4 Bft) 95,74 %
20.07.2017 17:26 25,5 C 26,7 C 26,1 C 60 % 0 lf 1007,7 hPa 0,0 l/m 0 min 0 min 237 W/m 23,0 km/h (4 Bft) 97,87 %
20.07.2017 17:28 25,6 C 26,7 C 26,1 C 61 % 0 lf 1007,7 hPa 0,0 l/m 0 min 0 min 212 W/m 16,7 km/h (3 Bft) 95,74 %
20.07.2017 17:30 25,6 C 26,7 C 25,6 C 61 % 0 lf 1007,7 hPa 0,0 l/m 0 min 0 min 197 W/m 18,8 km/h (3 Bft) 95,74 %
20.07.2017 17:32 25,6 C 26,7 C 25,6 C 61 % 0 lf 1007,7 hPa 0,0 l/m 0 min 0 min 204 W/m 14,6 km/h (3 Bft) 97,83 %
20.07.2017 17:34 25,6 C 26,7 C 25,6 C 63 % 0 lf 1007,6 hPa 0,0 l/m 0 min 0 min 208 W/m 12,6 km/h (3 Bft) 97,87 %
20.07.2017 17:36 25,6 C 26,7 C 26,1 C 63 % 0 lf 1007,7 hPa 0,0 l/m 0 min 0 min 216 W/m 12,6 km/h (3 Bft) 93,62 %
20.07.2017 17:38 25,6 C 26,7 C 26,1 C 63 % 0 lf 1007,7 hPa 0,0 l/m 0 min 0 min 270 W/m 16,7 km/h (3 Bft) 97,87 %
20.07.2017 17:40 25,6 C 26,7 C 25,6 C 62 % 0 lf 1007,7 hPa 0,0 l/m 0 min 0 min 238 W/m 23,0 km/h (4 Bft) 95,74 %
20.07.2017 17:42 25,6 C 26,7 C 26,1 C 61 % 0 lf 1007,7 hPa 0,0 l/m 0 min 0 min 213 W/m 25,1 km/h (4 Bft) 93,62 %
20.07.2017 17:44 25,6 C 26,7 C 25,6 C 61 % 0 lf 1007,8 hPa 0,0 l/m 0 min 0 min 210 W/m 16,7 km/h (3 Bft) 95,65 %
20.07.2017 17:46 25,6 C 26,7 C 25,6 C 62 % 0 lf 1007,8 hPa 0,0 l/m 0 min 0 min 196 W/m 18,8 km/h (3 Bft) 91,49 %
20.07.2017 17:48 25,6 C 26,7 C 25,6 C 62 % 0 lf 1007,8 hPa 0,0 l/m 0 min 0 min 170 W/m 14,6 km/h (3 Bft) 97,87 %
20.07.2017 17:50 25,6 C 26,1 C 25,6 C 62 % 0 lf 1007,8 hPa 0,0 l/m 0 min 0 min 189 W/m 18,8 km/h (3 Bft) 95,74 %
20.07.2017 17:52 25,6 C 26,1 C 25,0 C 61 % 0 lf 1007,8 hPa 0,0 l/m 2 min 0 min 274 W/m 29,3 km/h (5 Bft) 97,87 %
20.07.2017 17:54 25,6 C 26,1 C 25,0 C 61 % 0 lf 1007,8 hPa 0,0 l/m 2 min 0 min 341 W/m 27,2 km/h (4 Bft) 97,87 %
20.07.2017 17:56 25,6 C 26,7 C 25,6 C 62 % 0 lf 1007,8 hPa 0,0 l/m 2 min 0 min 355 W/m 23,0 km/h (4 Bft) 97,83 %
20.07.2017 17:58 25,6 C 26,7 C 26,1 C 63 % 0 lf 1007,8 hPa 0,0 l/m 2 min 0 min 347 W/m 27,2 km/h (4 Bft) 97,87 %
20.07.2017 18:00 25,6 C 26,7 C 26,1 C 62 % 0 lf 1007,8 hPa 0,0 l/m 2 min 0 min 323 W/m 25,1 km/h (4 Bft) 95,74 %
20.07.2017 18:02 25,6 C 26,7 C 26,1 C 63 % 0 lf 1007,8 hPa 0,0 l/m 2 min 0 min 278 W/m 23,0 km/h (4 Bft) 93,62 %
20.07.2017 18:04 25,6 C 26,7 C 26,1 C 62 % 0 lf 1007,8 hPa 0,0 l/m 2 min 0 min 288 W/m 23,0 km/h (4 Bft) 95,74 %
20.07.2017 18:06 25,6 C 26,7 C 26,1 C 62 % 0 lf 1007,9 hPa 0,0 l/m 2 min 0 min 271 W/m 20,9 km/h (4 Bft) 93,48 %
20.07.2017 18:10 25,6 C 26,1 C 25,6 C 63 % 0 lf 1007,9 hPa 0,0 l/m 4 min 0 min 269 W/m 33,5 km/h (5 Bft) 95,10 %
20.07.2017 18:12 25,6 C 26,1 C 25,6 C 62 % 0 lf 1007,9 hPa 0,0 l/m 2 min 0 min 255 W/m 37,7 km/h (5 Bft) 95,74 %
20.07.2017 18:14 25,5 C 26,1 C 25,6 C 62 % 0 lf 1007,9 hPa 0,0 l/m 2 min 0 min 242 W/m 20,9 km/h (4 Bft) 97,87 %
20.07.2017 18:16 25,4 C 26,1 C 25,6 C 62 % 0 lf 1007,9 hPa 0,0 l/m 0 min 0 min 232 W/m 29,3 km/h (5 Bft) 93,48 %
20.07.2017 18:18 25,4 C 26,1 C 25,6 C 62 % 0 lf 1008,0 hPa 0,0 l/m 0 min 0 min 221 W/m 25,1 km/h (4 Bft) 97,87 %
20.07.2017 18:20 25,4 C 26,1 C 25,0 C 62 % 0 lf 1008,0 hPa 0,0 l/m 0 min 0 min 222 W/m 23,0 km/h (4 Bft) 93,62 %
20.07.2017 18:22 25,3 C 26,1 C 25,0 C 62 % 0 lf 1008,0 hPa 0,0 l/m 2 min 0 min 331 W/m 25,1 km/h (4 Bft) 97,87 %
20.07.2017 18:24 25,3 C 26,1 C 25,0 C 63 % 0 lf 1008,1 hPa 0,0 l/m 2 min 0 min 379 W/m 23,0 km/h (4 Bft) 95,74 %
20.07.2017 18:26 25,3 C 26,1 C 25,0 C 62 % 0 lf 1007,9 hPa 0,0 l/m 2 min 0 min 252 W/m 27,2 km/h (4 Bft) 97,87 %
20.07.2017 18:28 25,3 C 26,1 C 25,0 C 62 % 0 lf 1008,0 hPa 0,0 l/m 2 min 0 min 224 W/m 27,2 km/h (4 Bft) 97,83 %
20.07.2017 18:30 25,2 C 25,6 C 25,0 C 62 % 0 lf 1008,1 hPa 0,0 l/m 0 min 0 min 201 W/m 31,4 km/h (5 Bft) 93,62 %
20.07.2017 18:32 25,2 C 25,6 C 24,4 C 61 % 0 lf 1008,1 hPa 0,0 l/m 0 min 0 min 196 W/m 33,5 km/h (5 Bft) 93,62 %
20.07.2017 18:34 25,1 C 25,0 C 24,4 C 62 % 0 lf 1008,2 hPa 0,0 l/m 0 min 0 min 193 W/m 33,5 km/h (5 Bft) 97,87 %
20.07.2017 18:36 25,1 C 25,6 C 24,4 C 62 % 0 lf 1008,2 hPa 0,0 l/m 0 min 0 min 187 W/m 23,0 km/h (4 Bft) 97,87 %
20.07.2017 18:38 25,1 C 25,6 C 24,4 C 62 % 0 lf 1008,2 hPa 0,0 l/m 0 min 0 min 190 W/m 23,0 km/h (4 Bft) 95,74 %
20.07.2017 18:40 25,0 C 25,0 C 24,4 C 63 % 0 lf 1008,2 hPa 0,0 l/m 0 min 0 min 178 W/m 20,9 km/h (4 Bft) 97,83 %
20.07.2017 18:42 24,9 C 25,0 C 24,4 C 63 % 0 lf 1008,1 hPa 0,0 l/m 0 min 0 min 162 W/m 27,2 km/h (4 Bft) 97,87 %
20.07.2017 18:44 24,9 C 25,0 C 24,4 C 63 % 0 lf 1008,2 hPa 0,0 l/m 0 min 0 min 160 W/m 31,4 km/h (5 Bft) 97,87 %
20.07.2017 18:46 24,8 C 25,0 C 23,9 C 63 % 0 lf 1008,3 hPa 0,0 l/m 0 min 0 min 170 W/m 31,4 km/h (5 Bft) 97,87 %
20.07.2017 18:48 24,8 C 25,0 C 24,4 C 63 % 0 lf 1008,3 hPa 0,0 l/m 0 min 0 min 184 W/m 18,8 km/h (3 Bft) 97,87 %
20.07.2017 18:50 24,8 C 25,0 C 24,4 C 64 % 0 lf 1008,1 hPa 0,0 l/m 2 min 0 min 251 W/m 31,4 km/h (5 Bft) 97,83 %
20.07.2017 18:52 24,7 C 25,0 C 24,4 C 63 % 0 lf 1008,2 hPa 0,0 l/m 2 min 0 min 250 W/m 23,0 km/h (4 Bft) 97,87 %
20.07.2017 18:54 24,7 C 25,6 C 24,4 C 64 % 0 lf 1008,3 hPa 0,0 l/m 2 min 0 min 271 W/m 33,5 km/h (5 Bft) 95,74 %
20.07.2017 18:56 24,7 C 25,6 C 24,4 C 63 % 0 lf 1008,3 hPa 0,0 l/m 2 min 0 min 274 W/m 29,3 km/h (5 Bft) 100,00 %
20.07.2017 18:58 24,7 C 25,6 C 24,4 C 63 % 0 lf 1008,3 hPa 0,0 l/m 2 min 0 min 270 W/m 33,5 km/h (5 Bft) 100,00 %
20.07.2017 19:00 24,7 C 25,6 C 24,4 C 63 % 0 lf 1008,3 hPa 0,0 l/m 2 min 0 min 287 W/m 27,2 km/h (4 Bft) 97,87 %
20.07.2017 19:02 24,7 C 25,6 C 24,4 C 63 % 0 lf 1008,4 hPa 0,0 l/m 2 min 0 min 272 W/m 29,3 km/h (5 Bft) 93,48 %
20.07.2017 19:04 24,7 C 25,0 C 24,4 C 63 % 0 lf 1008,4 hPa 0,0 l/m 2 min 0 min 239 W/m 31,4 km/h (5 Bft) 97,87 %
20.07.2017 19:06 24,7 C 25,0 C 24,4 C 64 % 0 lf 1008,4 hPa 0,0 l/m 2 min 0 min 190 W/m 37,7 km/h (5 Bft) 100,00 %
20.07.2017 19:08 24,7 C 25,0 C 23,9 C 63 % 0 lf 1008,5 hPa 0,0 l/m 0 min 0 min 153 W/m 35,6 km/h (5 Bft) 100,00 %
20.07.2017 19:10 24,7 C 25,0 C 23,9 C 63 % 0 lf 1008,5 hPa 0,0 l/m 0 min 0 min 126 W/m 31,4 km/h (5 Bft) 95,74 %
20.07.2017 19:12 24,6 C 24,4 C 23,3 C 64 % 0 lf 1008,5 hPa 0,0 l/m 0 min 0 min 99 W/m 29,3 km/h (5 Bft) 97,87 %
20.07.2017 19:14 24,6 C 24,4 C 23,3 C 64 % 0 lf 1008,5 hPa 0,0 l/m 0 min 0 min 82 W/m 35,6 km/h (5 Bft) 95,65 %
20.07.2017 19:16 24,5 C 24,4 C 23,3 C 64 % 0 lf 1008,6 hPa 0,0 l/m 0 min 0 min 63 W/m 31,4 km/h (5 Bft) 97,87 %
20.07.2017 19:18 24,4 C 23,9 C 22,8 C 64 % 0 lf 1008,7 hPa 0,0 l/m 0 min 0 min 54 W/m 33,5 km/h (5 Bft) 97,87 %
20.07.2017 19:20 24,3 C 23,9 C 22,8 C 64 % 0 lf 1008,8 hPa 0,0 l/m 0 min 0 min 64 W/m 33,5 km/h (5 Bft) 95,74 %
20.07.2017 19:22 24,3 C 23,9 C 22,8 C 64 % 0 lf 1008,8 hPa 0,0 l/m 0 min 0 min 86 W/m 31,4 km/h (5 Bft) 95,74 %
20.07.2017 19:24 24,2 C 23,9 C 22,8 C 64 % 0 lf 1008,8 hPa 0,0 l/m 0 min 0 min 112 W/m 20,9 km/h (4 Bft) 95,74 %
20.07.2017 19:26 24,1 C 23,9 C 22,8 C 65 % 0 lf 1008,8 hPa 0,0 l/m 0 min 0 min 136 W/m 29,3 km/h (5 Bft) 95,65 %
20.07.2017 19:28 24,1 C 23,9 C 22,8 C 65 % 0 lf 1008,9 hPa 0,0 l/m 2 min 0 min 148 W/m 29,3 km/h (5 Bft) 95,74 %
20.07.2017 19:30 24,0 C 23,9 C 22,8 C 66 % 0 lf 1009,0 hPa 0,0 l/m 2 min 0 min 148 W/m 39,7 km/h (6 Bft) 97,87 %
20.07.2017 19:32 23,9 C 23,9 C 22,8 C 67 % 0 lf 1009,0 hPa 0,0 l/m 0 min 0 min 140 W/m 35,6 km/h (5 Bft) 97,87 %
20.07.2017 19:34 23,8 C 23,3 C 22,2 C 67 % 0 lf 1009,0 hPa 0,0 l/m 0 min 0 min 122 W/m 39,7 km/h (6 Bft) 97,87 %
20.07.2017 19:36 23,7 C 23,3 C 22,2 C 68 % 0 lf 1009,1 hPa 0,0 l/m 0 min 0 min 102 W/m 39,7 km/h (6 Bft) 95,74 %
20.07.2017 19:38 23,6 C 23,3 C 21,7 C 69 % 0 lf 1009,1 hPa 0,0 l/m 0 min 0 min 82 W/m 25,1 km/h (4 Bft) 97,83 %
20.07.2017 19:40 23,4 C 22,8 C 21,7 C 69 % 0 lf 1009,2 hPa 0,0 l/m 0 min 0 min 78 W/m 29,3 km/h (5 Bft) 97,87 %
20.07.2017 19:42 23,3 C 22,8 C 21,7 C 69 % 0 lf 1009,3 hPa 0,0 l/m 0 min 0 min 85 W/m 25,1 km/h (4 Bft) 91,49 %
20.07.2017 19:44 23,2 C 22,8 C 21,7 C 70 % 0 lf 1009,3 hPa 0,0 l/m 0 min 0 min 87 W/m 33,5 km/h (5 Bft) 91,49 %
20.07.2017 19:46 23,1 C 22,8 C 21,7 C 70 % 0 lf 1009,4 hPa 0,0 l/m 0 min 0 min 91 W/m 31,4 km/h (5 Bft) 93,62 %
20.07.2017 19:48 23,0 C 22,8 C 21,7 C 70 % 0 lf 1009,4 hPa 0,0 l/m 0 min 0 min 119 W/m 31,4 km/h (5 Bft) 95,74 %
20.07.2017 19:50 22,9 C 22,8 C 21,7 C 70 % 0 lf 1009,5 hPa 0,0 l/m 2 min 0 min 123 W/m 27,2 km/h (4 Bft) 93,48 %
20.07.2017 19:52 22,8 C 22,2 C 21,7 C 71 % 0 lf 1009,5 hPa 0,0 l/m 0 min 0 min 111 W/m 39,7 km/h (6 Bft) 95,74 %
20.07.2017 19:54 22,7 C 22,2 C 21,7 C 71 % 0 lf 1009,6 hPa 0,0 l/m 0 min 0 min 108 W/m 35,6 km/h (5 Bft) 93,62 %
20.07.2017 19:56 22,6 C 22,2 C 21,7 C 72 % 0 lf 1009,6 hPa 0,0 l/m 2 min 0 min 113 W/m 29,3 km/h (5 Bft) 95,74 %
20.07.2017 19:58 22,5 C 22,2 C 21,7 C 72 % 0 lf 1009,6 hPa 0,0 l/m 2 min 0 min 111 W/m 31,4 km/h (5 Bft) 95,74 %
20.07.2017 20:00 22,4 C 22,2 C 21,1 C 72 % 0 lf 1009,7 hPa 0,0 l/m 0 min 0 min 105 W/m 35,6 km/h (5 Bft) 97,87 %
20.07.2017 20:02 22,3 C 21,7 C 21,1 C 72 % 0 lf 1009,7 hPa 0,0 l/m 0 min 0 min 93 W/m 31,4 km/h (5 Bft) 95,65 %
20.07.2017 20:04 22,2 C 21,7 C 20,6 C 71 % 0 lf 1009,8 hPa 0,0 l/m 0 min 0 min 82 W/m 41,8 km/h (6 Bft) 97,87 %
20.07.2017 20:06 22,1 C 21,7 C 20,6 C 72 % 0 lf 1009,9 hPa 0,0 l/m 0 min 0 min 77 W/m 35,6 km/h (5 Bft) 95,74 %
20.07.2017 20:08 21,9 C 21,1 C 20,6 C 72 % 0 lf 1009,8 hPa 0,0 l/m 0 min 0 min 76 W/m 41,8 km/h (6 Bft) 95,74 %
20.07.2017 20:10 21,8 C 21,1 C 20,6 C 72 % 0 lf 1009,9 hPa 0,0 l/m 0 min 0 min 71 W/m 31,4 km/h (5 Bft) 95,74 %
20.07.2017 20:12 21,7 C 21,1 C 20,0 C 72 % 0 lf 1009,9 hPa 0,0 l/m 0 min 0 min 69 W/m 39,7 km/h (6 Bft) 95,65 %
20.07.2017 20:14 21,6 C 21,1 C 20,0 C 73 % 0 lf 1010,0 hPa 0,0 l/m 0 min 0 min 66 W/m 35,6 km/h (5 Bft) 97,87 %
20.07.2017 20:16 21,4 C 20,6 C 20,0 C 74 % 0 lf 1010,0 hPa 0,0 l/m 0 min 0 min 60 W/m 29,3 km/h (5 Bft) 97,87 %
20.07.2017 20:18 21,3 C 20,6 C 20,0 C 74 % 0 lf 1010,1 hPa 0,0 l/m 0 min 0 min 54 W/m 35,6 km/h (5 Bft) 93,62 %
20.07.2017 20:20 21,2 C 20,6 C 20,0 C 75 % 0 lf 1010,1 hPa 0,0 l/m 0 min 0 min 45 W/m 33,5 km/h (5 Bft) 93,62 %
20.07.2017 20:22 21,2 C 20,6 C 20,0 C 75 % 0 lf 1010,2 hPa 0,0 l/m 0 min 0 min 42 W/m 33,5 km/h (5 Bft) 97,87 %
20.07.2017 20:24 21,1 C 20,6 C 20,0 C 76 % 0 lf 1010,1 hPa 0,0 l/m 0 min 0 min 42 W/m 27,2 km/h (4 Bft) 95,65 %
20.07.2017 20:26 21,0 C 20,6 C 19,4 C 76 % 0 lf 1010,2 hPa 0,0 l/m 0 min 0 min 39 W/m 25,1 km/h (4 Bft) 95,74 %
20.07.2017 20:28 21,0 C 20,6 C 19,4 C 76 % 0 lf 1010,2 hPa 0,0 l/m 0 min 0 min 34 W/m 27,2 km/h (4 Bft) 95,74 %
20.07.2017 20:30 20,9 C 20,6 C 19,4 C 77 % 0 lf 1010,2 hPa 0,0 l/m 0 min 0 min 28 W/m 35,6 km/h (5 Bft) 95,74 %
20.07.2017 20:32 20,8 C 20,0 C 19,4 C 77 % 0 lf 1010,3 hPa 0,0 l/m 0 min 0 min 26 W/m 33,5 km/h (5 Bft) 97,87 %
20.07.2017 20:34 20,8 C 20,0 C 19,4 C 78 % 0 lf 1010,3 hPa 0,0 l/m 0 min 0 min 26 W/m 27,2 km/h (4 Bft) 97,87 %
20.07.2017 20:36 20,7 C 20,0 C 19,4 C 78 % 0 lf 1010,4 hPa 0,0 l/m 0 min 0 min 25 W/m 37,7 km/h (5 Bft) 91,30 %
20.07.2017 20:38 20,7 C 20,0 C 19,4 C 79 % 0 lf 1010,4 hPa 0,0 l/m 0 min 0 min 23 W/m 23,0 km/h (4 Bft) 97,87 %
20.07.2017 20:40 20,6 C 20,0 C 18,9 C 79 % 0 lf 1010,3 hPa 0,0 l/m 0 min 0 min 20 W/m 25,1 km/h (4 Bft) 97,87 %
20.07.2017 20:42 20,6 C 20,0 C 18,9 C 79 % 0 lf 1010,4 hPa 0,0 l/m 0 min 0 min 17 W/m 14,6 km/h (3 Bft) 95,74 %
20.07.2017 20:44 20,5 C 20,0 C 18,9 C 80 % 0 lf 1010,4 hPa 0,0 l/m 0 min 0 min 16 W/m 29,3 km/h (5 Bft) 97,87 %
20.07.2017 20:46 20,4 C 19,4 C 18,9 C 80 % 0 lf 1010,4 hPa 0,0 l/m 0 min 0 min 16 W/m 20,9 km/h (4 Bft) 97,87 %
20.07.2017 20:48 20,3 C 19,4 C 18,9 C 80 % 0 lf 1010,5 hPa 0,0 l/m 0 min 0 min 18 W/m 18,8 km/h (3 Bft) 97,83 %
20.07.2017 20:50 20,3 C 19,4 C 18,9 C 81 % 0 lf 1010,5 hPa 0,0 l/m 0 min 0 min 18 W/m 20,9 km/h (4 Bft) 97,87 %
20.07.2017 20:52 20,3 C 19,4 C 18,9 C 81 % 0 lf 1010,5 hPa 0,0 l/m 0 min 0 min 19 W/m 20,9 km/h (4 Bft) 91,49 %
20.07.2017 20:54 20,2 C 19,4 C 18,9 C 81 % 0 lf 1010,3 hPa 0,0 l/m 0 min 0 min 21 W/m 16,7 km/h (3 Bft) 97,87 %
20.07.2017 20:56 20,2 C 19,4 C 18,9 C 81 % 0 lf 1010,4 hPa 0,0 l/m 0 min 0 min 21 W/m 20,9 km/h (4 Bft) 100,00 %
20.07.2017 20:58 20,1 C 19,4 C 18,9 C 82 % 0 lf 1010,4 hPa 0,0 l/m 0 min 0 min 19 W/m 20,9 km/h (4 Bft) 95,74 %
20.07.2017 21:00 20,1 C 19,4 C 18,9 C 82 % 0 lf 1010,5 hPa 0,0 l/m 0 min 0 min 18 W/m 20,9 km/h (4 Bft) 100,00 %
20.07.2017 21:02 20,0 C 19,4 C 18,9 C 82 % 0 lf 1010,5 hPa 0,0 l/m 0 min 0 min 16 W/m 18,8 km/h (3 Bft) 97,87 %
20.07.2017 21:04 19,9 C 19,4 C 18,3 C 82 % 0 lf 1010,6 hPa 0,0 l/m 0 min 0 min 16 W/m 18,8 km/h (3 Bft) 97,87 %
20.07.2017 21:06 19,9 C 19,4 C 18,3 C 83 % 0 lf 1010,6 hPa 0,0 l/m 0 min 0 min 17 W/m 16,7 km/h (3 Bft) 100,00 %
20.07.2017 21:08 19,9 C 19,4 C 18,3 C 82 % 0 lf 1010,7 hPa 0,0 l/m 0 min 0 min 18 W/m 18,8 km/h (3 Bft) 100,00 %
20.07.2017 21:10 19,8 C 19,4 C 18,3 C 83 % 0 lf 1010,7 hPa 0,0 l/m 0 min 0 min 18 W/m 18,8 km/h (3 Bft) 93,62 %
20.07.2017 21:12 19,8 C 19,4 C 18,3 C 83 % 0 lf 1010,7 hPa 0,0 l/m 0 min 0 min 18 W/m 20,9 km/h (4 Bft) 100,00 %
20.07.2017 21:14 19,8 C 19,4 C 18,3 C 83 % 0 lf 1010,7 hPa 0,0 l/m 0 min 0 min 18 W/m 16,7 km/h (3 Bft) 97,87 %
20.07.2017 21:16 19,7 C 18,9 C 18,3 C 83 % 0 lf 1010,8 hPa 0,0 l/m 0 min 0 min 18 W/m 14,6 km/h (3 Bft) 97,87 %
20.07.2017 21:18 19,7 C 18,9 C 18,3 C 83 % 0 lf 1010,8 hPa 0,0 l/m 0 min 0 min 18 W/m 16,7 km/h (3 Bft) 97,87 %
20.07.2017 21:20 19,7 C 18,9 C 18,3 C 83 % 0 lf 1010,8 hPa 0,0 l/m 0 min 0 min 18 W/m 14,6 km/h (3 Bft) 97,87 %
20.07.2017 21:22 19,7 C 18,9 C 18,3 C 84 % 0 lf 1010,9 hPa 0,0 l/m 0 min 0 min 16 W/m 18,8 km/h (3 Bft) 97,87 %
20.07.2017 21:24 19,6 C 18,9 C 17,8 C 84 % 0 lf 1010,7 hPa 0,0 l/m 0 min 0 min 14 W/m 18,8 km/h (3 Bft) 97,83 %
20.07.2017 21:26 19,6 C 18,9 C 17,8 C 84 % 0 lf 1010,9 hPa 0,0 l/m 0 min 0 min 12 W/m 16,7 km/h (3 Bft) 97,87 %
20.07.2017 21:28 19,6 C 18,9 C 17,8 C 84 % 0 lf 1010,9 hPa 0,0 l/m 0 min 0 min 12 W/m 18,8 km/h (3 Bft) 93,62 %
20.07.2017 21:30 19,5 C 18,9 C 17,8 C 84 % 0 lf 1010,9 hPa 0,0 l/m 0 min 0 min 11 W/m 23,0 km/h (4 Bft) 97,87 %
20.07.2017 21:32 19,5 C 18,9 C 17,8 C 84 % 0 lf 1011,0 hPa 0,0 l/m 0 min 0 min 9 W/m 12,6 km/h (3 Bft) 91,49 %
20.07.2017 21:34 19,4 C 18,9 C 17,8 C 84 % 0 lf 1011,0 hPa 0,0 l/m 0 min 0 min 8 W/m 20,9 km/h (4 Bft) 97,87 %
20.07.2017 21:36 19,4 C 18,9 C 17,8 C 84 % 0 lf 1011,0 hPa 0,0 l/m 0 min 0 min 7 W/m 18,8 km/h (3 Bft) 97,83 %
20.07.2017 21:38 19,4 C 18,9 C 17,8 C 85 % 0 lf 1011,0 hPa 0,0 l/m 0 min 0 min 7 W/m 18,8 km/h (3 Bft) 97,87 %
20.07.2017 21:40 19,3 C 18,9 C 17,8 C 85 % 0 lf 1011,0 hPa 0,0 l/m 0 min 0 min 8 W/m 16,7 km/h (3 Bft) 97,87 %
20.07.2017 21:42 19,3 C 18,9 C 17,8 C 85 % 0 lf 1011,0 hPa 0,0 l/m 0 min 0 min 7 W/m 18,8 km/h (3 Bft) 97,87 %
20.07.2017 21:44 19,3 C 18,9 C 17,8 C 85 % 0 lf 1011,1 hPa 0,0 l/m 0 min 0 min 7 W/m 10,5 km/h (2 Bft) 93,62 %
20.07.2017 21:46 19,3 C 18,9 C 17,8 C 85 % 0 lf 1011,1 hPa 0,0 l/m 0 min 0 min 7 W/m 14,6 km/h (3 Bft) 95,65 %
20.07.2017 21:48 19,2 C 18,9 C 17,8 C 85 % 0 lf 1011,2 hPa 0,0 l/m 0 min 0 min 7 W/m 16,7 km/h (3 Bft) 93,62 %
20.07.2017 21:50 19,2 C 18,9 C 17,8 C 85 % 0 lf 1011,2 hPa 0,0 l/m 0 min 0 min 7 W/m 14,6 km/h (3 Bft) 95,74 %
20.07.2017 21:52 19,2 C 18,9 C 17,8 C 85 % 0 lf 1011,3 hPa 0,0 l/m 0 min 0 min 5 W/m 14,6 km/h (3 Bft) 93,62 %
20.07.2017 21:54 19,2 C 18,9 C 17,8 C 85 % 0 lf 1011,3 hPa 0,0 l/m 0 min 0 min 5 W/m 10,5 km/h (2 Bft) 93,62 %
20.07.2017 21:56 19,2 C 18,9 C 17,8 C 85 % 0 lf 1011,4 hPa 0,0 l/m 0 min 0 min 5 W/m 10,5 km/h (2 Bft) 91,49 %
20.07.2017 21:58 19,2 C 18,9 C 17,8 C 85 % 0 lf 1011,5 hPa 0,0 l/m 0 min 0 min 5 W/m 14,6 km/h (3 Bft) 93,48 %
20.07.2017 22:00 19,2 C 18,9 C 17,8 C 85 % 0 lf 1011,5 hPa 0,0 l/m 0 min 0 min 5 W/m 12,6 km/h (3 Bft) 89,36 %
20.07.2017 22:02 19,2 C 18,9 C 17,8 C 85 % 0 lf 1011,6 hPa 0,0 l/m 0 min 0 min 5 W/m 8,4 km/h (2 Bft) 91,49 %
20.07.2017 22:04 19,1 C 18,3 C 17,8 C 85 % 0 lf 1011,6 hPa 0,0 l/m 0 min 0 min 5 W/m 12,6 km/h (3 Bft) 93,62 %
20.07.2017 22:06 19,1 C 18,3 C 17,8 C 85 % 0 lf 1011,6 hPa 0,0 l/m 0 min 0 min 5 W/m 10,5 km/h (2 Bft) 93,62 %
20.07.2017 22:08 19,1 C 18,3 C 17,8 C 85 % 0 lf 1011,6 hPa 0,0 l/m 0 min 0 min 5 W/m 8,4 km/h (2 Bft) 95,74 %
20.07.2017 22:10 19,1 C 18,3 C 17,2 C 85 % 0 lf 1011,7 hPa 0,0 l/m 0 min 0 min 5 W/m 10,5 km/h (2 Bft) 91,30 %
20.07.2017 22:12 19,1 C 18,3 C 17,2 C 85 % 0 lf 1011,7 hPa 0,0 l/m 0 min 0 min 5 W/m 8,4 km/h (2 Bft) 91,49 %
20.07.2017 22:14 19,1 C 18,3 C 17,2 C 85 % 0 lf 1011,8 hPa 0,0 l/m 0 min 0 min 5 W/m 8,4 km/h (2 Bft) 93,62 %
20.07.2017 22:16 19,1 C 18,3 C 17,2 C 85 % 0 lf 1011,7 hPa 0,0 l/m 0 min 0 min 5 W/m 12,6 km/h (3 Bft) 97,87 %
20.07.2017 22:18 19,0 C 18,3 C 17,2 C 85 % 0 lf 1011,8 hPa 0,0 l/m 0 min 0 min 5 W/m 10,5 km/h (2 Bft) 93,62 %
20.07.2017 22:20 19,0 C 18,3 C 17,2 C 85 % 0 lf 1011,8 hPa 0,0 l/m 0 min 0 min 5 W/m 8,4 km/h (2 Bft) 97,87 %
20.07.2017 22:22 18,9 C 18,3 C 17,2 C 85 % 0 lf 1011,8 hPa 0,0 l/m 0 min 0 min 5 W/m 6,3 km/h (2 Bft) 97,83 %
20.07.2017 22:24 18,9 C 18,3 C 17,2 C 85 % 0 lf 1011,9 hPa 0,0 l/m 0 min 0 min 0 W/m 8,4 km/h (2 Bft) 97,87 %
20.07.2017 22:26 18,9 C 17,8 C 17,2 C 85 % 0 lf 1011,8 hPa 0,0 l/m 0 min 0 min 5 W/m 8,4 km/h (2 Bft) 95,74 %
20.07.2017 22:28 18,9 C 17,8 C 16,7 C 85 % 0 lf 1011,9 hPa 0,0 l/m 0 min 0 min 5 W/m 6,3 km/h (2 Bft) 93,62 %
20.07.2017 22:30 18,9 C 17,8 C 16,7 C 85 % 0 lf 1011,9 hPa 0,0 l/m 0 min 0 min 5 W/m 6,3 km/h (2 Bft) 95,74 %
20.07.2017 22:32 18,8 C 17,8 C 16,7 C 85 % 0 lf 1011,9 hPa 0,0 l/m 0 min 0 min 5 W/m 14,6 km/h (3 Bft) 97,87 %
20.07.2017 22:34 18,8 C 17,8 C 16,7 C 85 % 0 lf 1012,0 hPa 0,0 l/m 0 min 0 min 5 W/m 10,5 km/h (2 Bft) 97,83 %
20.07.2017 22:36 18,8 C 17,8 C 16,7 C 86 % 0 lf 1011,9 hPa 0,0 l/m 0 min 0 min 5 W/m 8,4 km/h (2 Bft) 93,62 %
20.07.2017 22:38 18,7 C 17,8 C 16,7 C 85 % 0 lf 1012,0 hPa 0,0 l/m 0 min 0 min 5 W/m 8,4 km/h (2 Bft) 95,74 %
20.07.2017 22:40 18,7 C 17,8 C 16,7 C 85 % 0 lf 1012,0 hPa 0,0 l/m 0 min 0 min 5 W/m 14,6 km/h (3 Bft) 95,74 %
20.07.2017 22:42 18,7 C 17,8 C 16,7 C 85 % 0 lf 1012,0 hPa 0,0 l/m 0 min 0 min 0 W/m 6,3 km/h (2 Bft) 97,87 %
20.07.2017 22:44 18,7 C 17,8 C 16,7 C 85 % 0 lf 1012,0 hPa 0,0 l/m 0 min 0 min 0 W/m 8,4 km/h (2 Bft) 100,00 %
20.07.2017 22:46 18,6 C 17,8 C 16,7 C 85 % 0 lf 1012,0 hPa 0,0 l/m 0 min 0 min 0 W/m 14,6 km/h (3 Bft) 97,83 %
20.07.2017 22:48 18,6 C 17,8 C 16,7 C 85 % 0 lf 1012,1 hPa 0,0 l/m 0 min 0 min 0 W/m 10,5 km/h (2 Bft) 97,87 %
20.07.2017 22:50 18,6 C 17,8 C 16,7 C 86 % 0 lf 1012,1 hPa 0,0 l/m 0 min 0 min 0 W/m 10,5 km/h (2 Bft) 97,87 %
20.07.2017 22:52 18,5 C 17,8 C 16,7 C 86 % 0 lf 1012,2 hPa 0,0 l/m 0 min 0 min 5 W/m 8,4 km/h (2 Bft) 100,00 %
20.07.2017 22:54 18,5 C 17,2 C 16,1 C 86 % 0 lf 1012,2 hPa 0,0 l/m 0 min 0 min 2 W/m 12,6 km/h (3 Bft) 95,74 %
20.07.2017 22:56 18,4 C 17,2 C 16,7 C 85 % 0 lf 1012,3 hPa 0,0 l/m 0 min 0 min 0 W/m 12,6 km/h (3 Bft) 97,87 %
20.07.2017 22:58 18,4 C 17,2 C 16,1 C 85 % 0 lf 1012,2 hPa 0,0 l/m 0 min 0 min 0 W/m 10,5 km/h (2 Bft) 100,00 %
20.07.2017 23:00 18,3 C 17,2 C 16,1 C 85 % 0 lf 1012,3 hPa 0,0 l/m 0 min 0 min 0 W/m 8,4 km/h (2 Bft) 100,00 %
20.07.2017 23:02 18,3 C 17,2 C 16,1 C 85 % 0 lf 1012,3 hPa 0,0 l/m 0 min 0 min 0 W/m 10,5 km/h (2 Bft) 100,00 %
20.07.2017 23:04 18,3 C 17,2 C 16,1 C 85 % 0 lf 1012,4 hPa 0,0 l/m 0 min 0 min 0 W/m 10,5 km/h (2 Bft) 95,74 %
20.07.2017 23:06 18,2 C 17,2 C 16,1 C 85 % 0 lf 1012,4 hPa 0,0 l/m 0 min 0 min 0 W/m 10,5 km/h (2 Bft) 100,00 %
20.07.2017 23:08 18,2 C 17,2 C 16,1 C 85 % 0 lf 1012,4 hPa 0,0 l/m 0 min 0 min 0 W/m 8,4 km/h (2 Bft) 100,00 %
20.07.2017 23:10 18,2 C 17,2 C 16,1 C 85 % 0 lf 1012,4 hPa 0,0 l/m 0 min 0 min 0 W/m 6,3 km/h (2 Bft) 100,00 %
20.07.2017 23:12 18,1 C 17,2 C 16,1 C 85 % 0 lf 1012,4 hPa 0,0 l/m 0 min 0 min 0 W/m 10,5 km/h (2 Bft) 97,83 %
20.07.2017 23:14 18,1 C 17,2 C 16,1 C 85 % 0 lf 1012,5 hPa 0,0 l/m 0 min 0 min 0 W/m 8,4 km/h (2 Bft) 97,87 %
20.07.2017 23:16 18,1 C 17,2 C 16,1 C 84 % 0 lf 1012,5 hPa 0,0 l/m 0 min 0 min 4 W/m 10,5 km/h (2 Bft) 97,87 %
20.07.2017 23:18 18,0 C 17,2 C 15,6 C 84 % 0 lf 1012,5 hPa 0,0 l/m 0 min 0 min 3 W/m 10,5 km/h (2 Bft) 95,74 %
20.07.2017 23:20 17,9 C 17,2 C 15,6 C 84 % 0 lf 1012,6 hPa 0,0 l/m 0 min 0 min 0 W/m 10,5 km/h (2 Bft) 98,28 %
20.07.2017 23:22 17,9 C 16,7 C 15,6 C 84 % 0 lf 1012,6 hPa 0,0 l/m 0 min 0 min 5 W/m 10,5 km/h (2 Bft) 97,14 %
20.07.2017 23:24 17,8 C 16,7 C 15,6 C 83 % 0 lf 1012,6 hPa 0,0 l/m 0 min 0 min 1 W/m 8,4 km/h (2 Bft) 95,74 %
20.07.2017 23:26 17,8 C 16,7 C 15,6 C 83 % 0 lf 1012,6 hPa 0,0 l/m 0 min 0 min 0 W/m 8,4 km/h (2 Bft) 95,74 %
20.07.2017 23:28 17,8 C 16,7 C 15,6 C 82 % 0 lf 1012,6 hPa 0,0 l/m 0 min 0 min 0 W/m 6,3 km/h (2 Bft) 93,62 %
20.07.2017 23:30 17,7 C 16,7 C 15,6 C 82 % 0 lf 1012,6 hPa 0,0 l/m 0 min 0 min 0 W/m 6,3 km/h (2 Bft) 95,74 %
20.07.2017 23:32 17,7 C 16,7 C 15,6 C 82 % 0 lf 1012,6 hPa 0,0 l/m 0 min 0 min 0 W/m 10,5 km/h (2 Bft) 97,87 %
20.07.2017 23:34 17,7 C 16,7 C 15,6 C 82 % 0 lf 1012,6 hPa 0,0 l/m 0 min 0 min 0 W/m 8,4 km/h (2 Bft) 95,65 %
20.07.2017 23:36 17,7 C 16,7 C 15,6 C 82 % 0 lf 1012,6 hPa 0,0 l/m 0 min 0 min 0 W/m 10,5 km/h (2 Bft) 95,74 %
20.07.2017 23:38 17,7 C 16,7 C 15,6 C 82 % 0 lf 1012,6 hPa 0,0 l/m 0 min 0 min 0 W/m 10,5 km/h (2 Bft) 97,87 %
20.07.2017 23:40 17,6 C 16,7 C 15,6 C 82 % 0 lf 1012,6 hPa 0,0 l/m 0 min 0 min 0 W/m 8,4 km/h (2 Bft) 95,74 %
20.07.2017 23:42 17,6 C 16,7 C 15,6 C 82 % 0 lf 1012,6 hPa 0,0 l/m 0 min 0 min 0 W/m 8,4 km/h (2 Bft) 95,74 %
20.07.2017 23:44 17,6 C 16,7 C 15,6 C 82 % 0 lf 1012,6 hPa 0,0 l/m 0 min 0 min 0 W/m 10,5 km/h (2 Bft) 93,62 %
20.07.2017 23:46 17,6 C 16,7 C 15,0 C 82 % 0 lf 1012,7 hPa 0,0 l/m 0 min 0 min 0 W/m 10,5 km/h (2 Bft) 93,48 %
20.07.2017 23:48 17,5 C 16,7 C 15,0 C 82 % 0 lf 1012,7 hPa 0,0 l/m 0 min 0 min 0 W/m 8,4 km/h (2 Bft) 95,74 %
20.07.2017 23:50 17,5 C 16,7 C 15,0 C 82 % 0 lf 1012,8 hPa 0,0 l/m 0 min 0 min 0 W/m 8,4 km/h (2 Bft) 91,49 %
20.07.2017 23:52 17,4 C 16,1 C 15,0 C 82 % 0 lf 1012,8 hPa 0,0 l/m 0 min 0 min 0 W/m 14,6 km/h (3 Bft) 95,74 %
20.07.2017 23:54 17,4 C 16,1 C 15,0 C 82 % 0 lf 1012,8 hPa 0,0 l/m 0 min 0 min 0 W/m 8,4 km/h (2 Bft) 95,74 %
20.07.2017 23:56 17,4 C 16,1 C 15,0 C 82 % 0 lf 1012,8 hPa 0,0 l/m 0 min 0 min 0 W/m 8,4 km/h (2 Bft) 95,74 %
20.07.2017 23:58 17,3 C 16,1 C 15,0 C 82 % 0 lf 1012,8 hPa 0,0 l/m 0 min 0 min 0 W/m 10,5 km/h (2 Bft) 95,65 %
_ Min-Zeit 23:58 23:52 23:46 15:12 00:00 05:44 - - - - 02:08 00:02
Minimum _ 17,3 C 16,1 C 15,0 C 57 % 0 lf 1006,1 hPa - - - - 0,0 km/h (0 Bft) 20,00 %
_ Max-Zeit 16:28 13:18 16:08 08:44 02:00 23:50 05:28 18:10 06:10 14:12 15:20 00:00
Maximum _ 26,9 C 33,3 C 34,4 C 99 % 15 lf 1012,8 hPa 1,2 l/m 4 min 4 min 1123 W/m 43,9 km/h
W-SW (6 Bft)
100,00 %
Durchschnitt _ 21,7 C 22,3 C 21,4 C 83 % 4 lf 1008,1 hPa #14,8 l/m #4:32 h #3:10 h 263 W/m 16,0 km/h (3 Bft) 96,35 %
© 2017 W. Hausmann